FW6030 Weather Reports


time (UTC)temp
F
wind
direction
speed
knots
gust
knots
rain 1hr
in
rain 24hr
in
rain mn
in
humidity
%
barometer
mb
20260509151224 74 360 4.3 9.6 0.00 0.01 0.01 92 1012.5
20260509151125 74 360 5.2 9.6 0.00 0.01 0.01 92 1012.4
20260509151024 74 360 5.2 9.6 0.00 0.01 0.01 92 1012.4
20260509150926 74 360 5.2 9.6 0.00 0.01 0.01 92 1012.4
20260509150826 74 360 5.2 9.6 0.00 0.01 0.01 92 1012.4
20260509150726 74 360 3.5 8.7 0.00 0.01 0.01 93 1012.5
20260509150630 74 360 3.5 7.8 0.00 0.01 0.01 93 1012.5
20260509150532 74 360 2.6 5.2 0.00 0.01 0.01 93 1012.4
20260509150432 74 360 2.6 5.2 0.00 0.01 0.01 93 1012.5
20260509150333 74 360 2.6 5.2 0.00 0.01 0.01 93 1012.5
20260509150232 74 360 2.6 5.2 0.00 0.01 0.01 93 1012.5
20260509150133 74 360 1.7 7.8 0.00 0.01 0.01 93 1012.6
20260509150037 74 360 1.7 7.8 0.00 0.01 0.01 93 1012.6
20260509145917 74 360 1.7 7.8 0.00 0.01 0.01 93 1012.6
20260509145837 74 360 2.6 9.6 0.00 0.01 0.01 93 1012.6
20260509145737 74 360 2.6 9.6 0.00 0.01 0.01 93 1012.5
20260509145616 74 360 4.3 9.6 0.00 0.01 0.01 93 1012.4
20260509145516 73 360 4.3 9.6 0.00 0.01 0.01 93 1012.3
20260509145417 73 360 5.2 9.6 0.00 0.01 0.01 93 1012.3
20260509145337 73 360 5.2 11.3 0.00 0.01 0.01 93 1012.3
20260509145221 73 360 5.2 12.2 0.00 0.01 0.01 93 1012.3
20260509145122 73 360 5.2 12.2 0.00 0.01 0.01 93 1012.3
20260509145024 73 360 5.2 12.2 0.00 0.01 0.01 93 1012.3
20260509144925 73 360 6.1 12.2 0.00 0.01 0.01 93 1012.3
20260509144824 73 360 6.1 12.2 0.00 0.01 0.01 93 1012.3
20260509144725 73 360 7.0 12.2 0.00 0.01 0.01 93 1012.2
20260509144629 73 360 7.0 12.2 0.00 0.01 0.01 93 1012.2
20260509144531 73 360 7.0 12.2 0.00 0.01 0.01 93 1012.1
20260509144431 73 360 7.0 12.2 0.00 0.01 0.01 93 1012.1
20260509144331 73 360 6.1 11.3 0.00 0.01 0.01 93 1012.2
20260509144232 73 360 5.2 11.3 0.00 0.01 0.01 93 1012.1
20260509144131 73 360 4.3 11.3 0.00 0.01 0.01 93 1012.0
20260509144032 73 360 4.3 11.3 0.00 0.01 0.01 93 1012.1
20260509143936 73 360 4.3 11.3 0.00 0.01 0.01 93 1012.0
20260509143836 73 360 5.2 11.3 0.00 0.01 0.01 93 1012.1
20260509143716 73 360 5.2 11.3 0.00 0.01 0.01 93 1012.0
20260509143617 73 360 6.1 11.3 0.00 0.01 0.01 93 1012.1
20260509143518 73 360 6.1 11.3 0.00 0.01 0.01 93 1012.1
20260509143418 73 360 7.0 11.3 0.00 0.01 0.01 93 1012.1
20260509143320 73 360 6.1 11.3 0.00 0.01 0.01 93 1012.0
20260509143224 73 360 7.0 11.3 0.00 0.01 0.01 94 1011.9
20260509143125 73 360 5.2 10.4 0.00 0.01 0.01 94 1011.9
20260509143025 73 360 4.3 10.4 0.00 0.01 0.01 94 1011.9
20260509142926 73 360 4.3 11.3 0.00 0.01 0.01 94 1011.8
20260509142826 73 360 4.3 11.3 0.00 0.01 0.01 94 1011.8
20260509142726 73 360 5.2 13.9 0.00 0.01 0.01 94 1011.8
20260509142630 73 360 6.1 13.9 0.00 0.01 0.01 94 1011.8
20260509142531 73 360 7.0 13.9 0.00 0.01 0.01 94 1011.9
20260509142431 73 360 7.0 13.9 0.00 0.01 0.01 94 1011.9
20260509142331 73 360 7.0 13.9 0.00 0.01 0.01 94 1011.9
20260509142230 73 360 7.8 13.9 0.00 0.01 0.01 94 1011.9
20260509142131 73 360 7.0 13.9 0.00 0.01 0.01 94 1012.1
20260509142031 73 360 7.0 13.9 0.00 0.01 0.01 94 1012.0
20260509141915 73 360 6.1 13.9 0.00 0.01 0.01 94 1012.0
20260509141835 73 360 7.0 13.0 0.00 0.01 0.01 94 1012.0
20260509141716 73 360 7.0 13.0 0.00 0.01 0.01 94 1011.9
20260509141617 73 360 7.8 13.0 0.00 0.01 0.01 94 1011.8
20260509141537 73 360 7.0 13.0 0.00 0.01 0.01 94 1011.8
20260509141437 73 360 6.1 13.0 0.00 0.01 0.01 94 1011.7
20260509141316 73 360 6.1 13.0 0.00 0.01 0.01 94 1011.7
20260509141222 73 360 6.1 13.0 0.00 0.01 0.01 94 1011.7
20260509141122 73 360 6.1 10.4 0.00 0.01 0.01 94 1011.6
20260509141022 73 360 7.0 10.4 0.00 0.01 0.01 94 1011.6
20260509140923 73 360 7.8 10.4 0.00 0.01 0.01 94 1011.7
20260509140823 73 360 7.8 10.4 0.00 0.01 0.01 94 1011.7
20260509140723 73 360 7.8 9.6 0.00 0.01 0.01 94 1011.7
20260509140644 73 360 7.0 9.6 0.00 0.01 0.01 94 1011.7
20260509140528 73 360 6.1 9.6 0.00 0.01 0.01 94 1011.7
20260509140428 73 360 5.2 8.7 0.00 0.01 0.01 94 1011.6
20260509140328 73 360 5.2 8.7 0.00 0.01 0.01 94 1011.6
20260509140229 73 360 3.5 7.8 0.00 0.01 0.01 94 1011.6
20260509140149 73 360 3.5 7.8 0.00 0.01 0.01 94 1011.6
20260509140030 73 360 3.5 7.8 0.00 0.01 0.01 94 1011.6
20260509135950 73 360 2.6 7.8 0.00 0.01 0.01 95 1011.6
20260509135828 73 360 2.6 7.0 0.00 0.01 0.01 94 1011.6
20260509135732 73 360 2.6 5.2 0.00 0.01 0.01 94 1011.6
20260509135632 73 360 2.6 5.2 0.00 0.01 0.01 94 1011.6
20260509135532 73 360 2.6 5.2 0.00 0.01 0.01 94 1011.5
20260509135432 73 360 2.6 4.3 0.00 0.01 0.01 94 1011.6
20260509135333 73 360 1.7 4.3 0.00 0.01 0.01 94 1011.6
20260509135233 73 360 1.7 4.3 0.00 0.01 0.01 94 1011.6
20260509135134 72 360 1.7 4.3 0.00 0.01 0.01 94 1011.7
20260509135018 72 360 1.7 2.6 0.00 0.01 0.01 94 1011.8
20260509134918 72 360 0.9 2.6 0.00 0.01 0.01 94 1011.8
20260509134818 72 360 0.9 2.6 0.00 0.01 0.01 94 1011.9
20260509134718 72 360 0.9 2.6 0.00 0.01 0.01 94 1011.9
20260509134618 73 360 0.9 2.6 0.00 0.01 0.01 94 1012.0
20260509134538 73 360 0.0 1.7 0.00 0.01 0.01 94 1012.0
20260509134418 73 360 0.0 4.3 0.00 0.01 0.01 94 1012.0
20260509134338 73 360 0.0 4.3 0.00 0.01 0.01 94 1012.1
20260509134222 73 360 0.0 4.3 0.00 0.01 0.01 94 1012.1
20260509134124 73 360 0.0 8.7 0.00 0.01 0.01 94 1012.1
20260509134045 73 360 0.9 8.7 0.00 0.01 0.01 94 1012.1
20260509133923 73 360 0.9 8.7 0.00 0.01 0.01 94 1012.0
20260509133824 73 360 1.7 8.7 0.00 0.01 0.01 94 1012.1
20260509133744 73 360 1.7 8.7 0.00 0.01 0.01 94 1012.1
20260509133624 73 360 1.7 8.7 0.00 0.01 0.01 94 1012.1
20260509133528 73 360 2.6 8.7 0.00 0.01 0.01 94 1012.1
20260509133428 73 360 3.5 8.7 0.00 0.01 0.01 94 1012.1
20260509133349 73 360 4.3 8.7 0.00 0.01 0.01 94 1012.1
20260509133229 73 360 4.3 8.7 0.00 0.01 0.01 94 1012.1
20260509133128 73 360 4.3 8.7 0.00 0.01 0.01 94 1012.1
20260509133027 73 360 3.5 7.0 0.00 0.01 0.01 94 1012.1
20260509132927 73 360 2.6 7.0 0.00 0.01 0.01 94 1012.1
20260509132828 73 360 2.6 5.2 0.00 0.01 0.01 94 1012.0
20260509132730 73 360 3.5 5.2 0.00 0.01 0.01 94 1012.1
20260509132633 73 360 3.5 5.2 0.00 0.01 0.01 94 1012.1
20260509132534 72 360 2.6 5.2 0.00 0.01 0.01 94 1012.1
20260509132434 72 360 2.6 5.2 0.00 0.01 0.01 94 1012.2
20260509132335 72 360 1.7 5.2 0.00 0.01 0.01 94 1012.2
20260509132236 72 360 1.7 5.2 0.00 0.01 0.01 94 1012.2
20260509132156 72 360 1.7 5.2 0.00 0.01 0.01 94 1012.3
20260509132056 72 360 2.6 5.2 0.00 0.01 0.01 94 1012.3
20260509131919 72 360 3.5 5.2 0.00 0.01 0.01 94 1012.4
20260509131820 72 360 3.5 5.2 0.00 0.01 0.01 94 1012.4
20260509131721 72 360 3.5 5.2 0.00 0.01 0.01 94 1012.4
20260509131621 72 360 2.6 5.2 0.00 0.01 0.01 94 1012.5
20260509131542 72 360 2.6 5.2 0.00 0.01 0.01 94 1012.4
20260509131421 72 360 1.7 5.2 0.00 0.01 0.01 94 1012.4
20260509131322 72 360 2.6 5.2 0.00 0.01 0.01 94 1012.5
20260509131226 72 360 2.6 5.2 0.00 0.01 0.01 94 1012.4
20260509131127 72 336 2.6 5.2 0.00 0.01 0.01 94 1012.4
20260509131048 72 360 2.6 5.2 0.00 0.01 0.01 94 1012.4
20260509130927 72 18 3.5 5.2 0.00 0.01 0.01 94 1012.4
20260509130827 72 360 3.5 5.2 0.00 0.01 0.01 94 1012.2
20260509130747 72 360 3.5 5.2 0.00 0.01 0.01 94 1012.1
20260509130627 72 360 3.5 7.0 0.00 0.01 0.01 94 1012.1
20260509130533 72 360 2.6 7.0 0.00 0.01 0.01 94 1012.1
20260509130433 72 360 2.6 7.0 0.00 0.01 0.01 94 1012.0
20260509130333 72 347 2.6 7.0 0.00 0.01 0.01 94 1012.0
20260509130233 72 303 2.6 7.0 0.00 0.01 0.01 94 1012.0
20260509130134 72 360 3.5 7.0 0.00 0.01 0.01 94 1012.0
20260509130035 72 360 3.5 7.0 0.00 0.01 0.01 94 1011.9
20260509125934 72 360 3.5 7.0 0.00 0.01 0.01 94 1012.0
20260509125820 72 360 4.3 7.0 0.00 0.01 0.01 94 1012.0
20260509125719 72 360 3.5 7.0 0.00 0.01 0.01 94 1012.0
20260509125620 72 360 3.5 6.1 0.00 0.01 0.01 94 1012.0
20260509125541 72 360 3.5 6.1 0.00 0.01 0.01 94 1012.0
20260509125440 72 360 2.6 4.3 0.00 0.01 0.01 94 1011.9
20260509125319 72 360 2.6 3.5 0.00 0.01 0.01 94 1011.9
20260509125220 72 360 1.7 3.5 0.00 0.01 0.01 94 1011.9
20260509125125 72 360 0.9 2.6 0.00 0.01 0.01 94 1011.9
20260509125025 72 360 0.9 2.6 0.00 0.01 0.01 94 1011.9
20260509124925 72 360 0.0 1.7 0.00 0.01 0.01 94 1011.8
20260509124825 72 360 0.0 1.7 0.00 0.01 0.01 94 1011.8
20260509124726 72 360 0.0 1.7 0.00 0.01 0.01 94 1011.8
20260509124627 72 360 0.0 1.7 0.00 0.01 0.01 94 1011.8
20260509124548 72 360 0.0 1.7 0.00 0.01 0.01 94 1011.8
20260509124431 72 360 0.9 1.7 0.00 0.01 0.01 94 1011.8
20260509124351 72 360 0.9 1.7 0.00 0.01 0.01 94 1011.8
20260509124231 72 360 0.9 1.7 0.00 0.01 0.01 94 1011.8
20260509124132 72 360 0.0 1.7 0.00 0.01 0.01 94 1011.9
20260509124032 72 360 0.0 1.7 0.00 0.01 0.01 94 1011.8
20260509123933 72 360 0.9 1.7 0.00 0.01 0.01 94 1011.9
20260509123834 72 360 0.9 1.7 0.00 0.01 0.01 94 1011.9
20260509123718 72 360 0.9 1.7 0.00 0.01 0.01 94 1011.9
20260509123619 72 360 0.9 1.7 0.00 0.01 0.01 94 1011.8
20260509123540 72 360 0.9 1.7 0.00 0.01 0.01 94 1011.8
20260509123419 72 360 0.9 1.7 0.00 0.01 0.01 94 1011.8
20260509123320 72 360 0.9 1.7 0.00 0.01 0.01 94 1011.8
20260509123221 72 360 0.9 3.5 0.00 0.01 0.01 94 1011.7
20260509123123 72 360 0.0 3.5 0.00 0.01 0.01 94 1011.8
20260509123027 72 360 0.0 3.5 0.00 0.01 0.01 94 1011.8
20260509122928 72 360 0.9 3.5 0.00 0.01 0.01 94 1011.8
20260509122828 72 360 0.9 3.5 0.00 0.01 0.01 94 1011.8
20260509122729 72 360 0.9 3.5 0.00 0.01 0.01 94 1011.8
20260509122629 72 360 1.7 3.5 0.00 0.01 0.01 94 1011.7
20260509122549 72 360 1.7 3.5 0.00 0.01 0.01 94 1011.7
20260509122428 72 360 1.7 3.5 0.00 0.01 0.01 94 1011.7
20260509122333 72 360 1.7 3.5 0.00 0.01 0.01 94 1011.6
20260509122234 72 360 1.7 3.5 0.00 0.01 0.01 94 1011.6
20260509122134 72 360 0.9 3.5 0.00 0.01 0.01 94 1011.6
20260509122055 72 360 0.9 3.5 0.00 0.01 0.01 94 1011.7
20260509121934 72 360 0.9 2.6 0.00 0.01 0.01 94 1011.7
20260509121835 72 360 0.9 2.6 0.00 0.01 0.01 94 1011.8
20260509121719 72 360 0.9 2.6 0.00 0.01 0.01 94 1011.9
20260509121640 72 360 0.9 2.6 0.00 0.01 0.01 94 1011.9
20260509121519 72 360 0.0 1.7 0.00 0.01 0.01 94 1012.0
20260509121419 72 360 0.0 0.0 0.00 0.01 0.01 94 1012.0
20260509121320 72 360 0.0 1.7 0.00 0.01 0.01 94 1011.9
20260509121221 72 360 0.0 1.7 0.00 0.01 0.01 94 1011.9
20260509121121 72 360 0.0 1.7 0.00 0.01 0.01 94 1012.0
20260509121025 72 360 0.0 1.7 0.00 0.01 0.01 94 1012.0
20260509120926 72 360 0.0 1.7 0.00 0.01 0.01 94 1012.0
20260509120827 72 360 0.0 1.7 0.00 0.01 0.01 94 1011.9
20260509120728 72 360 0.0 1.7 0.00 0.01 0.01 94 1011.9
20260509120648 72 360 0.0 1.7 0.00 0.01 0.01 94 1011.9
20260509120528 72 360 0.0 1.7 0.00 0.01 0.01 94 1011.9
20260509120427 72 360 0.9 1.7 0.00 0.01 0.01 94 1011.8
20260509120347 72 360 0.9 1.7 0.00 0.01 0.01 94 1011.8
20260509120251 72 360 0.9 1.7 0.00 0.01 0.01 94 1011.8
20260509120131 72 360 0.9 1.7 0.00 0.01 0.01 94 1011.7
20260509120028 72 360 0.0 1.7 0.00 0.01 0.01 94 1011.9
20260509115929 72 360 0.0 2.6 0.00 0.01 0.01 94 1011.8
20260509115850 72 360 0.0 2.6 0.00 0.01 0.01 94 1011.8
20260509115730 72 360 0.0 2.6 0.00 0.01 0.01 94 1011.9
20260509115630 72 360 0.0 2.6 0.00 0.01 0.01 94 1011.8
20260509115535 72 360 0.9 2.6 0.00 0.01 0.01 94 1011.9
20260509115455 72 360 0.9 2.6 0.00 0.01 0.01 94 1011.9
20260509115334 72 360 0.9 2.6 0.00 0.01 0.01 94 1011.8
20260509115235 72 360 0.9 2.6 0.00 0.01 0.01 94 1011.9
20260509115155 72 360 1.7 2.6 0.00 0.01 0.01 94 1011.9
20260509115035 72 360 1.7 2.6 0.00 0.01 0.01 94 1011.9
20260509114955 72 360 1.7 5.2 0.00 0.01 0.01 94 1011.8
20260509114835 72 316 0.9 5.2 0.00 0.01 0.01 94 1011.8
20260509114719 72 360 0.9 5.2 0.00 0.01 0.01 94 1011.9
20260509114619 72 360 0.9 5.2 0.00 0.01 0.01 94 1011.8
20260509114520 72 315 0.9 7.0 0.00 0.01 0.01 94 1011.9
20260509114421 72 360 0.9 7.8 0.00 0.01 0.01 94 1011.9
20260509114322 72 360 1.7 7.8 0.00 0.01 0.01 94 1011.9
20260509114243 72 360 1.7 7.8 0.00 0.01 0.01 94 1011.9
20260509114116 72 360 2.6 7.8 0.00 0.01 0.01 94 1012.0
20260509114020 72 360 3.5 7.8 0.00 0.01 0.01 94 1012.0
20260509113920 72 360 4.3 7.8 0.00 0.01 0.01 94 1012.2
20260509113821 72 360 4.3 7.8 0.00 0.01 0.01 94 1012.2
20260509113723 72 360 4.3 7.8 0.00 0.01 0.01 94 1012.2
20260509113624 72 360 4.3 7.8 0.00 0.01 0.01 94 1012.3
20260509113545 72 360 3.5 7.0 0.00 0.01 0.01 94 1012.3
20260509113424 72 360 2.6 5.2 0.00 0.01 0.01 94 1012.4
20260509113348 72 360 2.6 5.2 0.00 0.01 0.01 94 1012.4
20260509113228 72 360 2.6 4.3 0.00 0.01 0.01 93 1012.4
20260509113147 72 360 2.6 4.3 0.00 0.01 0.01 94 1012.4
20260509113027 72 360 2.6 3.5 0.00 0.01 0.01 93 1012.5
20260509112928 72 360 2.6 3.5 0.00 0.01 0.01 93 1012.6
20260509112828 72 360 2.6 3.5 0.00 0.01 0.01 94 1012.5
20260509112729 72 360 2.6 3.5 0.00 0.01 0.01 94 1012.5
20260509112646 72 360 1.7 3.5 0.00 0.01 0.01 93 1012.6
20260509112526 72 360 1.7 3.5 0.00 0.01 0.01 93 1012.6
20260509112430 72 360 0.9 2.6 0.00 0.01 0.01 93 1012.6
20260509112331 72 360 0.9 2.6 0.00 0.01 0.01 93 1012.6
20260509112252 72 360 0.0 2.6 0.00 0.01 0.01 93 1012.6
20260509112130 72 315 0.0 2.6 0.00 0.01 0.01 93 1012.6
20260509112031 72 315 0.0 2.6 0.00 0.01 0.01 93 1012.5
20260509111951 72 360 0.0 2.6 0.00 0.01 0.01 93 1012.6
20260509111830 72 360 0.0 2.6 0.00 0.01 0.01 93 1012.5
20260509111730 72 360 0.9 2.6 0.00 0.01 0.01 93 1012.6
20260509111634 72 360 0.9 2.6 0.00 0.01 0.01 93 1012.5
20260509111535 72 360 0.9 4.3 0.00 0.01 0.01 93 1012.5
20260509111435 72 360 0.9 4.3 0.00 0.01 0.01 93 1012.5
20260509111336 72 360 0.9 4.3 0.00 0.01 0.01 93 1012.5
20260509111218 72 360 0.9 4.3 0.00 0.01 0.01 93 1012.6
20260509111119 72 360 1.7 4.3 0.00 0.01 0.01 93 1012.7
20260509111023 72 360 1.7 4.3 0.00 0.01 0.01 93 1012.6
20260509110924 72 360 1.7 5.2 0.00 0.01 0.01 93 1012.7
20260509110824 72 360 1.7 5.2 0.00 0.01 0.01 93 1012.7
20260509110745 72 360 1.7 5.2 0.00 0.01 0.01 93 1012.7
20260509110625 72 360 0.9 5.2 0.00 0.01 0.01 93 1012.7
20260509110525 72 360 1.7 5.2 0.00 0.01 0.01 93 1012.6
20260509110446 72 360 1.7 5.2 0.00 0.01 0.01 93 1012.7
20260509110330 72 360 1.7 5.2 0.00 0.01 0.01 93 1012.7
20260509110230 72 360 1.7 5.2 0.00 0.01 0.01 93 1012.7
20260509110130 72 360 2.6 5.2 0.00 0.01 0.01 93 1012.8
20260509110032 72 360 2.6 5.2 0.00 0.01 0.01 93 1012.8
20260509105931 72 360 2.6 4.3 0.00 0.01 0.01 93 1012.8
20260509105851 72 360 2.6 4.3 0.00 0.01 0.01 93 1012.8
20260509105750 72 360 2.6 4.3 0.00 0.01 0.01 93 1012.8
20260509105629 72 360 2.6 4.3 0.00 0.01 0.01 93 1012.8
20260509105549 72 360 2.6 5.2 0.00 0.01 0.01 93 1012.9
20260509105452 72 360 2.6 5.2 0.00 0.01 0.01 93 1012.9
20260509105352 72 346 2.6 5.2 0.00 0.01 0.01 93 1012.9
20260509105231 72 360 1.7 5.2 0.00 0.01 0.01 93 1012.9
20260509105132 72 360 2.6 5.2 0.00 0.01 0.01 93 1012.8
20260509105032 72 360 2.6 5.2 0.00 0.01 0.01 93 1012.8
20260509104933 72 360 2.6 5.2 0.00 0.01 0.01 93 1012.8
20260509104833 72 360 2.6 5.2 0.00 0.01 0.01 93 1012.8
20260509104718 72 360 2.6 5.2 0.00 0.01 0.01 93 1012.7
20260509104618 72 360 2.6 4.3 0.00 0.01 0.01 93 1012.7
20260509104518 72 360 2.6 4.3 0.00 0.01 0.01 93 1012.8
20260509104419 72 360 2.6 4.3 0.00 0.01 0.01 93 1012.8
20260509104319 72 22 2.6 4.3 0.00 0.01 0.01 93 1012.8
20260509104219 72 360 3.5 4.3 0.00 0.01 0.01 93 1012.9
20260509104123 72 360 2.6 4.3 0.00 0.01 0.01 93 1012.9
20260509104024 72 360 2.6 4.3 0.00 0.01 0.01 93 1012.9
20260509103924 72 11 2.6 4.3 0.00 0.01 0.01 93 1013.0
20260509103846 72 360 2.6 4.3 0.00 0.01 0.01 93 1012.9
20260509103725 72 360 2.6 4.3 0.00 0.01 0.01 93 1012.9
20260509103624 72 360 2.6 4.3 0.00 0.01 0.01 93 1012.9
20260509103524 72 360 3.5 4.3 0.00 0.01 0.01 93 1012.8
20260509103425 72 360 3.5 4.3 0.00 0.01 0.01 93 1012.8
20260509103330 72 360 3.5 4.3 0.00 0.01 0.01 93 1012.8
20260509103249 72 360 2.6 4.3 0.00 0.01 0.01 93 1012.8
20260509103128 72 360 2.6 4.3 0.00 0.01 0.01 93 1012.8
20260509103028 72 360 2.6 4.3 0.00 0.01 0.01 93 1012.8
20260509102929 72 360 2.6 3.5 0.00 0.01 0.01 93 1012.8
20260509102830 72 360 2.6 3.5 0.00 0.01 0.01 93 1012.8
20260509102730 72 360 2.6 4.3 0.00 0.01 0.01 93 1012.8
20260509102650 72 360 2.6 4.3 0.00 0.01 0.01 93 1012.8
20260509102555 72 360 2.6 4.3 0.00 0.01 0.01 93 1012.8
20260509102434 72 360 2.6 4.3 0.00 0.01 0.01 93 1012.7
20260509102334 72 360 2.6 4.3 0.00 0.01 0.01 93 1012.7
20260509102233 72 360 2.6 4.3 0.00 0.01 0.01 93 1012.7
20260509102133 72 360 2.6 4.3 0.00 0.01 0.01 93 1012.7
20260509102054 72 360 2.6 4.3 0.00 0.01 0.01 93 1012.6
20260509101934 72 360 2.6 4.3 0.00 0.01 0.01 93 1012.6
20260509101818 72 360 2.6 3.5 0.00 0.01 0.01 93 1012.6
20260509101719 72 360 2.6 3.5 0.00 0.01 0.01 93 1012.5
20260509101619 72 360 1.7 3.5 0.00 0.01 0.01 93 1012.5
20260509101520 72 360 1.7 2.6 0.00 0.01 0.01 93 1012.5
20260509101420 72 360 0.9 2.6 0.00 0.01 0.01 93 1012.4
20260509101320 72 360 0.9 2.6 0.00 0.01 0.01 93 1012.5
20260509101220 72 360 0.0 2.6 0.00 0.01 0.01 93 1012.3
20260509101125 72 360 0.0 2.6 0.00 0.01 0.01 93 1012.2
20260509101025 72 360 0.9 2.6 0.00 0.01 0.01 93 1012.3
20260509100926 72 360 0.9 2.6 0.00 0.01 0.01 93 1012.3
20260509100826 72 360 0.9 2.6 0.00 0.01 0.01 93 1012.1
20260509100725 72 360 1.7 2.6 0.00 0.01 0.01 93 1011.9
20260509100626 72 360 1.7 2.6 0.00 0.01 0.01 93 1011.9
20260509100531 72 360 1.7 3.5 0.00 0.01 0.01 93 1011.9
20260509100451 72 360 1.7 3.5 0.00 0.01 0.01 93 1011.8
20260509100331 72 130 1.7 3.5 0.00 0.01 0.01 93 1011.8
20260509100230 72 360 1.7 3.5 0.00 0.01 0.01 92 1011.7
20260509100151 72 360 1.7 3.5 0.00 0.01 0.01 92 1011.7
20260509100028 72 360 1.7 3.5 0.00 0.01 0.01 92 1011.6
20260509095947 72 360 1.7 3.5 0.00 0.01 0.01 92 1011.6
20260509095826 72 360 1.7 3.5 0.00 0.01 0.01 92 1011.6
20260509095729 72 360 1.7 3.5 0.00 0.01 0.01 92 1011.5
20260509095652 72 360 1.7 3.5 0.00 0.01 0.01 93 1011.5
20260509095531 72 360 1.7 3.5 0.00 0.01 0.01 93 1011.5
20260509095432 72 360 1.7 3.5 0.00 0.01 0.01 93 1011.6
20260509095334 72 360 1.7 3.5 0.00 0.01 0.01 93 1011.6
20260509095235 72 360 1.7 3.5 0.00 0.01 0.01 93 1011.5
20260509095136 72 360 1.7 2.6 0.00 0.01 0.01 93 1011.6
20260509095035 72 360 1.7 2.6 0.00 0.01 0.01 93 1011.5
20260509094920 72 360 0.9 2.6 0.00 0.01 0.01 93 1011.6
20260509094820 72 87 0.9 2.6 0.00 0.01 0.01 93 1011.5
20260509094720 72 360 0.9 2.6 0.00 0.01 0.01 93 1011.5
20260509094619 72 360 0.9 2.6 0.00 0.01 0.01 93 1011.4
20260509094519 72 360 0.9 2.6 0.00 0.01 0.01 92 1011.5
20260509094418 72 360 0.9 2.6 0.00 0.01 0.01 92 1011.5
20260509094317 72 360 0.9 2.6 0.00 0.01 0.01 92 1011.5
20260509094222 72 86 0.9 1.7 0.00 0.01 0.01 92 1011.5
20260509094123 72 86 0.9 1.7 0.01 0.01 0.01 92 1011.6
20260509094043 72 360 0.9 1.7 0.01 0.01 0.01 92 1011.6
20260509093922 72 360 0.9 1.7 0.01 0.01 0.01 92 1011.6
20260509093822 72 360 0.9 1.7 0.01 0.01 0.01 92 1011.6
20260509093722 72 360 0.9 1.7 0.01 0.01 0.01 92 1011.6
20260509093622 72 360 0.9 1.7 0.01 0.01 0.01 92 1011.6
20260509093527 72 360 0.9 1.7 0.01 0.01 0.01 92 1011.6
20260509093427 72 360 0.9 1.7 0.01 0.01 0.01 92 1011.6
20260509093327 72 360 0.9 1.7 0.01 0.01 0.01 92 1011.4
20260509093227 72 360 0.0 0.9 0.01 0.01 0.01 92 1011.5
20260509093128 72 360 0.0 0.9 0.01 0.01 0.01 92 1011.4
20260509093029 72 360 0.0 0.9 0.01 0.01 0.01 92 1011.5
20260509092929 72 360 0.0 0.9 0.01 0.01 0.01 92 1011.6
20260509092854 72 360 0.0 0.9 0.01 0.01 0.01 92 1011.5
20260509092734 72 360 0.0 0.9 0.01 0.01 0.01 92 1011.5
20260509092635 72 360 0.0 0.9 0.01 0.01 0.01 92 1011.5
20260509092516 72 360 0.0 0.9 0.01 0.01 0.01 92 1011.4
20260509092417 72 360 0.0 0.9 0.01 0.01 0.01 92 1011.5
20260509092318 72 360 0.0 0.9 0.01 0.01 0.01 92 1011.4
20260509092222 72 360 0.0 0.9 0.01 0.01 0.01 92 1011.5
20260509092123 72 360 0.0 0.9 0.01 0.01 0.01 92 1011.5
20260509092024 72 360 0.0 0.9 0.01 0.01 0.01 92 1011.5
20260509091925 72 360 0.0 1.7 0.01 0.01 0.01 92 1011.6
20260509091825 72 360 0.0 1.7 0.01 0.01 0.01 92 1011.4
20260509091725 72 360 0.0 1.7 0.01 0.01 0.01 92 1011.4
20260509091625 72 360 0.0 1.7 0.01 0.01 0.01 92 1011.5
20260509091530 72 360 0.9 1.7 0.01 0.01 0.01 92 1011.5
20260509091430 72 360 0.9 1.7 0.01 0.01 0.01 92 1011.3
20260509091330 72 360 0.9 1.7 0.01 0.01 0.01 92 1011.4
20260509091231 72 360 0.9 1.7 0.01 0.01 0.01 92 1011.4
20260509091132 72 360 0.9 2.6 0.01 0.01 0.01 92 1011.4
20260509091034 72 360 0.9 2.6 0.01 0.01 0.01 92 1011.4
20260509090937 72 360 0.9 2.6 0.01 0.01 0.01 92 1011.4
20260509090818 72 360 0.9 2.6 0.01 0.01 0.01 92 1011.3
20260509090718 72 360 0.9 2.6 0.01 0.01 0.01 92 1011.4
20260509090618 72 360 0.9 2.6 0.01 0.01 0.01 92 1011.4
20260509090519 72 360 0.9 2.6 0.01 0.01 0.01 92 1011.4
20260509090420 72 80 0.9 2.6 0.01 0.01 0.01 92 1011.4
20260509090320 72 80 0.9 2.6 0.01 0.01 0.01 92 1011.4
20260509090224 72 81 0.9 2.6 0.01 0.01 0.01 92 1011.4
20260509090126 72 360 0.9 2.6 0.01 0.01 0.01 92 1011.4
20260509090025 72 77 0.0 1.7 0.01 0.01 0.01 92 1011.4
20260509085926 72 360 0.0 1.7 0.01 0.01 0.01 92 1011.4
20260509085847 72 360 0.0 0.9 0.01 0.01 0.01 92 1011.4
20260509085725 72 360 0.0 0.9 0.01 0.01 0.01 92 1011.5
20260509085625 72 360 0.9 0.9 0.01 0.01 0.01 92 1011.5
20260509085530 72 360 0.9 0.9 0.01 0.01 0.01 92 1011.5
20260509085431 72 360 0.9 0.9 0.01 0.01 0.01 92 1011.4
20260509085332 72 360 0.0 0.9 0.01 0.01 0.01 92 1011.4
20260509085231 72 360 0.0 0.9 0.01 0.01 0.01 92 1011.4
20260509085132 72 360 0.0 1.7 0.01 0.01 0.01 92 1011.4
20260509085033 72 360 0.0 1.7 0.01 0.01 0.01 92 1011.4
20260509084938 72 360 0.0 2.6 0.01 0.01 0.01 92 1011.4
20260509084838 72 360 0.0 2.6 0.01 0.01 0.01 92 1011.6
20260509084717 72 360 0.0 2.6 0.01 0.01 0.01 92 1011.5
20260509084617 72 360 0.9 2.6 0.01 0.01 0.01 92 1011.5
20260509084518 72 360 0.9 2.6 0.01 0.01 0.01 92 1011.5
20260509084419 72 360 0.9 3.5 0.01 0.01 0.01 92 1011.5
20260509084319 72 360 0.9 3.5 0.01 0.01 0.01 92 1011.4
20260509084225 72 360 1.7 3.5 0.01 0.01 0.01 92 1011.5
20260509084125 72 360 1.7 3.5 0.00 0.00 0.00 92 1011.6
20260509084026 72 77 1.7 3.5 0.00 0.00 0.00 92 1011.6
20260509083946 72 360 1.7 3.5 0.00 0.00 0.00 92 1011.5
20260509083826 72 360 1.7 3.5 0.00 0.00 0.00 92 1011.5
20260509083727 72 360 1.7 3.5 0.00 0.00 0.00 92 1011.6
20260509083647 72 74 1.7 3.5 0.00 0.00 0.00 92 1011.5
20260509083527 72 74 1.7 2.6 0.00 0.00 0.00 92 1011.5
20260509083431 72 360 1.7 2.6 0.00 0.00 0.00 92 1011.6
20260509083332 72 360 0.9 2.6 0.00 0.00 0.00 92 1011.7
20260509083233 72 68 0.9 2.6 0.00 0.00 0.00 92 1011.8
20260509083134 72 360 0.9 2.6 0.00 0.00 0.00 92 1011.8
20260509083033 72 360 0.9 2.6 0.00 0.00 0.00 92 1011.8
20260509082954 72 360 0.9 0.0 0.00 0.00 0.00 92 1011.8
20260509082853 72 29 0.9 0.0 0.00 0.00 0.00 91 1011.8
20260509082815 72 360 0.9 2.6 0.00 0.00 0.00 91 1011.8
20260509082241 72 30 0.9 2.6 0.00 0.00 0.00 91 1011.8
20260509082133 72 30 0.9 2.6 0.00 0.00 0.00 91 1011.8
20260509082034 72 30 0.9 2.6 0.00 0.00 0.00 91 1011.8
20260509081933 72 30 0.9 2.6 0.00 0.00 0.00 91 1011.8
20260509081854 72 360 0.9 2.6 0.00 0.00 0.00 91 1011.8
20260509081734 72 26 0.9 3.5 0.00 0.00 0.00 91 1011.8
20260509081618 72 360 0.9 3.5 0.00 0.00 0.00 91 1011.8
20260509081518 72 360 0.9 3.5 0.00 0.00 0.00 91 1011.9
20260509081439 72 30 0.9 3.5 0.00 0.00 0.00 91 1012.0
20260509081318 72 360 0.9 3.5 0.00 0.00 0.00 91 1012.1
20260509081238 72 360 0.9 3.5 0.00 0.00 0.00 91 1012.0
20260509081138 72 360 0.9 3.5 0.00 0.00 0.00 91 1012.0
20260509081017 72 360 0.9 3.5 0.00 0.00 0.00 91 1011.9
20260509080938 72 360 1.7 3.5 0.00 0.00 0.00 91 1011.9
20260509080837 72 360 1.7 3.5 0.00 0.00 0.00 91 1011.9
20260509080720 72 30 1.7 3.5 0.00 0.00 0.00 91 1011.9
20260509080621 72 27 1.7 3.5 0.00 0.00 0.00 91 1011.8
20260509080522 72 29 1.7 3.5 0.00 0.00 0.00 91 1011.8
20260509080442 72 360 1.7 3.5 0.00 0.00 0.00 91 1011.8
20260509080322 72 360 1.7 3.5 0.00 0.00 0.00 91 1011.7
20260509080224 72 360 1.7 3.5 0.00 0.00 0.00 91 1011.6
20260509080145 72 360 1.7 3.5 0.00 0.00 0.00 91 1011.6
20260509080027 72 360 1.7 3.5 0.00 0.00 0.00 91 1011.6
20260509075928 72 360 1.7 3.5 0.00 0.00 0.00 91 1011.7
20260509075848 72 360 1.7 3.5 0.00 0.00 0.00 91 1011.6
20260509075729 72 360 1.7 3.5 0.00 0.00 0.00 91 1011.6
20260509075629 72 360 0.9 3.5 0.00 0.00 0.00 91 1011.5
20260509075528 72 360 0.9 3.5 0.00 0.00 0.00 91 1011.6
20260509075429 72 360 0.9 2.6 0.00 0.00 0.00 91 1011.6
20260509075351 72 360 0.9 2.6 0.00 0.00 0.00 91 1011.6
20260509075235 72 360 0.9 2.6 0.00 0.00 0.00 91 1011.6
20260509075135 72 360 0.9 2.6 0.00 0.00 0.00 91 1011.7
20260509075035 72 360 0.9 2.6 0.00 0.00 0.00 91 1011.6
20260509074935 72 360 0.9 2.6 0.00 0.00 0.00 91 1011.7
20260509074855 72 360 0.9 2.6 0.00 0.00 0.00 91 1011.6
20260509074733 72 360 0.9 2.6 0.00 0.00 0.00 91 1011.6
20260509074633 73 360 0.9 2.6 0.00 0.00 0.00 91 1011.6
20260509074518 73 360 0.9 2.6 0.00 0.00 0.00 91 1011.6
20260509074419 73 360 0.9 2.6 0.00 0.00 0.00 91 1011.5
20260509074320 73 360 0.9 2.6 0.00 0.00 0.00 91 1011.5
20260509074221 72 360 0.9 2.6 0.00 0.00 0.00 91 1011.6
20260509074123 72 360 0.9 2.6 0.00 0.00 0.00 91 1011.7
20260509074023 72 360 0.9 2.6 0.00 0.00 0.00 91 1011.6
20260509073927 72 360 0.9 2.6 0.00 0.00 0.00 91 1011.6
20260509073828 72 360 0.9 2.6 0.00 0.00 0.00 91 1011.6
20260509073730 72 360 0.9 2.6 0.00 0.00 0.00 91 1011.7
20260509073632 72 360 0.9 2.6 0.00 0.00 0.00 91 1011.6
20260509073533 72 360 0.9 2.6 0.00 0.00 0.00 91 1011.6
20260509073434 72 360 0.9 2.6 0.00 0.00 0.00 91 1011.6
20260509073334 72 360 0.9 2.6 0.00 0.00 0.00 91 1011.6
20260509073219 72 360 0.9 2.6 0.00 0.00 0.00 91 1011.4
20260509073119 72 360 0.9 2.6 0.00 0.00 0.00 91 1011.5
20260509073040 72 360 0.9 2.6 0.00 0.00 0.00 91 1011.5
20260509072920 72 360 0.9 2.6 0.00 0.00 0.00 91 1011.6
20260509072822 72 360 1.7 2.6 0.00 0.00 0.00 91 1011.6
20260509072743 72 360 1.7 3.5 0.00 0.00 0.00 91 1011.7
20260509072623 72 360 1.7 3.5 0.00 0.00 0.00 91 1011.7
20260509072527 72 360 1.7 3.5 0.00 0.00 0.00 91 1011.7
20260509072448 72 360 1.7 3.5 0.00 0.00 0.00 91 1011.7
20260509072328 72 360 2.6 3.5 0.00 0.00 0.00 91 1011.7
20260509072249 72 360 2.6 4.3 0.00 0.00 0.00 91 1011.8
20260509072130 72 360 2.6 4.3 0.00 0.00 0.00 91 1011.7
20260509072030 72 360 2.6 4.3 0.00 0.00 0.00 91 1011.8
20260509071931 72 360 2.6 4.3 0.00 0.00 0.00 91 1011.7
20260509071833 72 360 2.6 4.3 0.00 0.00 0.00 91 1011.8
20260509071757 72 360 2.6 4.3 0.00 0.00 0.00 91 1011.7
20260509071656 72 360 2.6 4.3 0.00 0.00 0.00 90 1011.8
20260509071516 72 360 2.6 4.3 0.00 0.00 0.00 90 1011.7
20260509071418 72 360 2.6 4.3 0.00 0.00 0.00 90 1011.8
20260509071318 72 360 2.6 4.3 0.00 0.00 0.00 90 1011.7
20260509071219 72 360 2.6 4.3 0.00 0.00 0.00 90 1011.7
20260509071119 72 360 2.6 4.3 0.00 0.00 0.00 90 1011.8
20260509071040 72 360 2.6 4.3 0.00 0.00 0.00 90 1011.8
20260509070922 72 360 2.6 5.2 0.00 0.00 0.00 90 1011.8
20260509070843 72 360 2.6 5.2 0.00 0.00 0.00 90 1011.7
20260509070722 72 360 2.6 5.2 0.00 0.00 0.00 90 1011.8
20260509070622 72 360 2.6 5.2 0.00 0.00 0.00 90 1011.8
20260509070543 72 360 2.6 5.2 0.00 0.00 0.00 90 1011.8
20260509070424 72 360 2.6 5.2 0.00 0.00 0.00 90 1011.8
20260509070325 72 360 2.6 5.2 0.00 0.00 0.00 90 1011.8
20260509070226 72 360 2.6 5.2 0.00 0.00 0.00 90 1011.8
20260509070131 73 360 2.6 7.0 0.00 0.00 0.00 90 1011.9
20260509070029 72 360 2.6 8.7 0.00 0.00 0.00 90 1011.8
20260509065929 73 360 2.6 8.7 0.00 0.00 0.00 90 1011.7
20260509065827 72 360 2.6 8.7 0.00 0.00 0.00 90 1011.8
20260509065729 72 360 2.6 8.7 0.00 0.00 0.00 90 1011.8
20260509065629 72 360 2.6 8.7 0.00 0.00 0.00 90 1011.8
20260509065550 72 360 2.6 8.7 0.00 0.00 0.00 90 1011.9
20260509065430 73 360 3.5 8.7 0.00 0.00 0.00 90 1011.9
20260509065316 73 360 4.3 8.7 0.00 0.00 0.00 90 1011.8
20260509065216 73 360 4.3 8.7 0.00 0.00 0.00 90 1011.9
20260509065138 73 360 3.5 8.7 0.00 0.00 0.00 90 1011.9
20260509065018 73 360 3.5 7.8 0.00 0.00 0.00 90 1011.9
20260509064917 73 360 3.5 7.8 0.00 0.00 0.00 90 1011.9
20260509064818 73 360 3.5 7.8 0.00 0.00 0.00 90 1011.9
20260509064719 73 360 3.5 7.8 0.00 0.00 0.00 90 1011.9
20260509064624 73 360 3.5 7.8 0.00 0.00 0.00 90 1011.8
20260509064524 73 360 3.5 7.0 0.00 0.00 0.00 90 1011.9
20260509064423 73 360 3.5 7.0 0.00 0.00 0.00 90 1011.8
20260509064344 73 360 3.5 7.0 0.00 0.00 0.00 90 1011.7
20260509064243 73 360 3.5 7.0 0.00 0.00 0.00 90 1011.7
20260509064142 73 360 3.5 7.0 0.00 0.00 0.00 90 1011.7
20260509064016 73 360 3.5 7.0 0.00 0.00 0.00 90 1011.6
20260509063917 73 360 3.5 7.8 0.00 0.00 0.00 90 1011.6
20260509063816 73 360 2.6 7.8 0.00 0.00 0.00 90 1011.6
20260509063721 73 360 3.5 7.8 0.00 0.00 0.00 90 1011.5
20260509063620 73 360 3.5 7.8 0.00 0.00 0.00 90 1011.4
20260509063521 73 360 3.5 8.7 0.00 0.00 0.00 90 1011.4
20260509063442 73 360 3.5 8.7 0.00 0.00 0.00 90 1011.4
20260509063321 73 360 4.3 8.7 0.00 0.00 0.00 90 1011.5
20260509063241 73 360 4.3 11.3 0.00 0.00 0.00 90 1011.5
20260509063122 73 360 5.2 11.3 0.00 0.00 0.00 90 1011.5
20260509063022 73 360 5.2 11.3 0.00 0.00 0.00 90 1011.5
20260509062927 73 360 5.2 11.3 0.00 0.00 0.00 90 1011.5
20260509062828 73 360 6.1 11.3 0.00 0.00 0.00 90 1011.5
20260509062749 73 360 6.1 11.3 0.00 0.00 0.00 90 1011.4
20260509062626 73 360 6.1 11.3 0.00 0.00 0.00 90 1011.5
20260509062526 73 360 6.1 11.3 0.00 0.00 0.00 90 1011.4
20260509062426 73 360 6.1 10.4 0.00 0.00 0.00 89 1011.5
20260509062327 73 360 6.1 10.4 0.00 0.00 0.00 89 1011.5
20260509062230 73 360 5.2 10.4 0.00 0.00 0.00 89 1011.5
20260509062131 73 360 5.2 10.4 0.00 0.00 0.00 89 1011.5
20260509062033 73 360 4.3 8.7 0.00 0.00 0.00 89 1011.6
20260509061933 73 360 5.2 8.7 0.00 0.00 0.00 89 1011.5
20260509061833 73 360 4.3 10.4 0.00 0.00 0.00 89 1011.6
20260509061733 73 360 4.3 10.4 0.00 0.00 0.00 89 1011.6
20260509061618 73 360 4.3 11.3 0.00 0.00 0.00 89 1011.5
20260509061518 73 360 4.3 11.3 0.00 0.00 0.00 89 1011.6
20260509061419 73 360 4.3 11.3 0.00 0.00 0.00 89 1011.6
20260509061319 73 360 4.3 11.3 0.00 0.00 0.00 89 1011.4
20260509061220 73 360 4.3 11.3 0.00 0.00 0.00 89 1011.4
20260509061120 73 360 4.3 11.3 0.00 0.00 0.00 89 1011.3
20260509061020 73 360 4.3 11.3 0.00 0.00 0.00 89 1011.3
20260509060925 73 360 4.3 11.3 0.00 0.00 0.00 89 1011.3
20260509060826 73 360 5.2 11.3 0.00 0.00 0.00 89 1011.3
20260509060727 73 360 5.2 11.3 0.00 0.00 0.00 89 1011.4
20260509060627 73 360 5.2 11.3 0.00 0.00 0.00 89 1011.4
20260509060527 73 360 5.2 11.3 0.00 0.00 0.00 89 1011.3
20260509060428 73 360 6.1 13.0 0.00 0.00 0.00 89 1011.4
20260509060332 73 360 5.2 13.0 0.00 0.00 0.00 89 1011.4
20260509060233 73 360 5.2 13.0 0.00 0.00 0.00 89 1011.4
20260509060134 73 360 4.3 13.0 0.00 0.00 0.00 89 1011.4
20260509060054 73 360 5.2 13.0 0.00 0.00 0.00 89 1011.4
20260509055934 73 360 5.2 13.0 0.00 0.00 0.00 89 1011.4
20260509055834 73 360 6.1 13.0 0.00 0.00 0.00 89 1011.4
20260509055735 73 360 6.1 13.0 0.00 0.00 0.00 89 1011.4
20260509055619 73 360 7.0 13.0 0.00 0.00 0.00 89 1011.4
20260509055519 73 360 7.8 13.0 0.00 0.00 0.00 89 1011.4
20260509055420 73 360 7.8 13.0 0.00 0.00 0.00 89 1011.3
20260509055321 73 360 7.8 13.0 0.00 0.00 0.00 89 1011.3
20260509055220 73 360 7.8 15.6 0.00 0.00 0.00 89 1011.4
20260509055141 73 360 7.0 15.6 0.00 0.00 0.00 89 1011.4
20260509055041 73 360 7.0 15.6 0.00 0.00 0.00 89 1011.3
20260509054924 73 360 6.1 15.6 0.00 0.00 0.00 88 1011.3
20260509054825 73 360 6.1 15.6 0.00 0.00 0.00 88 1011.2
20260509054725 73 360 6.1 15.6 0.00 0.00 0.00 88 1011.3
20260509054624 73 360 6.1 15.6 0.00 0.00 0.00 88 1011.3
20260509054525 73 360 7.0 15.6 0.00 0.00 0.00 88 1011.3
20260509054426 73 360 7.0 15.6 0.00 0.00 0.00 88 1011.3
20260509054346 73 360 6.1 15.6 0.00 0.00 0.00 88 1011.2
20260509054226 73 360 5.2 15.6 0.00 0.00 0.00 88 1011.3
20260509054151 73 360 6.1 15.6 0.00 0.00 0.00 88 1011.3
20260509054050 73 360 5.2 11.3 0.00 0.00 0.00 88 1011.3
20260509053929 73 360 5.2 11.3 0.00 0.00 0.00 88 1011.3
20260509053828 73 360 5.2 11.3 0.00 0.00 0.00 88 1011.2
20260509053729 73 360 5.2 11.3 0.00 0.00 0.00 88 1011.3
20260509053629 73 360 5.2 11.3 0.00 0.00 0.00 88 1011.3
20260509053529 73 360 5.2 11.3 0.00 0.00 0.00 88 1011.3
20260509053449 73 360 4.3 11.3 0.00 0.00 0.00 88 1011.3
20260509053327 73 360 5.2 13.9 0.00 0.00 0.00 88 1011.3
20260509053252 73 360 4.3 13.9 0.00 0.00 0.00 88 1011.3
20260509053131 73 360 5.2 13.9 0.00 0.00 0.00 88 1011.3
20260509053031 73 360 5.2 13.9 0.00 0.00 0.00 88 1011.3
20260509052932 73 360 6.1 13.9 0.00 0.00 0.00 88 1011.3
20260509052833 73 360 6.1 13.9 0.00 0.00 0.00 88 1011.3
20260509052735 73 360 6.1 13.9 0.00 0.00 0.00 88 1011.2
20260509052618 73 360 6.1 13.9 0.00 0.00 0.00 88 1011.3
20260509052518 73 360 6.1 13.9 0.00 0.00 0.00 88 1011.2
20260509052419 73 360 6.1 13.9 0.00 0.00 0.00 88 1011.2
20260509052320 73 360 5.2 13.9 0.00 0.00 0.00 88 1011.2
20260509052220 73 360 5.2 13.9 0.00 0.00 0.00 88 1011.3
20260509052121 73 360 5.2 11.3 0.00 0.00 0.00 88 1011.2
20260509052021 73 360 4.3 11.3 0.00 0.00 0.00 88 1011.3
20260509051926 73 360 4.3 11.3 0.00 0.00 0.00 88 1011.2
20260509051826 73 360 4.3 11.3 0.00 0.00 0.00 88 1011.3
20260509051727 73 360 5.2 11.3 0.00 0.00 0.00 88 1011.3
20260509051627 73 360 5.2 11.3 0.00 0.00 0.00 88 1011.3
20260509051525 73 360 6.1 11.3 0.00 0.00 0.00 88 1011.2
20260509051426 73 360 6.1 11.3 0.00 0.00 0.00 88 1011.2
20260509051326 73 360 6.1 11.3 0.00 0.00 0.00 88 1011.2
20260509051251 73 360 7.0 11.3 0.00 0.00 0.00 88 1011.2
20260509051150 73 360 7.0 11.3 0.00 0.00 0.00 88 1011.0
20260509051030 73 360 7.0 11.3 0.00 0.00 0.00 88 1010.9
20260509050930 73 360 7.0 11.3 0.00 0.00 0.00 88 1010.9
20260509050831 73 360 7.8 12.2 0.00 0.00 0.00 88 1010.9
20260509050731 73 360 7.8 12.2 0.00 0.00 0.00 88 1010.9
20260509050652 73 360 7.8 12.2 0.00 0.00 0.00 88 1010.9
20260509050531 73 360 7.8 12.2 0.00 0.00 0.00 88 1010.8
20260509050435 73 360 7.8 12.2 0.00 0.00 0.00 88 1010.9
20260509050316 73 360 7.0 12.2 0.00 0.00 0.00 88 1010.8
20260509050217 73 360 7.0 12.2 0.00 0.00 0.00 88 1011.0
20260509050117 73 360 6.1 12.2 0.00 0.00 0.00 88 1010.9
20260509050038 73 360 6.1 12.2 0.00 0.00 0.00 88 1010.9
20260509045952 73 360 5.2 10.4 0.00 0.00 0.00 88 1011.0
20260509045831 73 360 5.2 10.4 0.00 0.00 0.00 88 1010.9
20260509045736 73 360 5.2 10.4 0.00 0.00 0.00 88 1010.9
20260509045635 73 360 5.2 10.4 0.00 0.00 0.00 88 1011.0
20260509045555 73 360 5.2 10.4 0.00 0.00 0.00 88 1011.0
20260509045455 73 360 5.2 10.4 0.00 0.00 0.00 88 1011.0
20260509045334 73 360 6.1 10.4 0.00 0.00 0.00 88 1011.0
20260509045234 73 360 6.1 10.4 0.00 0.00 0.00 88 1011.0
20260509045134 73 360 7.0 11.3 0.00 0.00 0.00 88 1011.0
20260509045056 73 360 7.0 11.3 0.00 0.00 0.00 88 1011.0
20260509044918 73 360 7.0 11.3 0.00 0.00 0.00 88 1010.8
20260509044819 73 360 7.8 11.3 0.00 0.00 0.00 88 1010.9
20260509044718 73 360 7.0 11.3 0.00 0.00 0.00 88 1010.8
20260509044619 73 360 7.0 11.3 0.00 0.00 0.00 88 1010.9
20260509044519 73 360 7.0 11.3 0.00 0.00 0.00 88 1010.8
20260509044438 73 360 6.1 11.3 0.00 0.00 0.00 88 1010.9
20260509044338 73 360 6.1 11.3 0.00 0.00 0.00 88 1010.9
20260509044217 73 360 6.1 10.4 0.00 0.00 0.00 88 1010.8
20260509044122 73 360 6.1 10.4 0.00 0.00 0.00 88 1010.8
20260509044022 73 360 6.1 10.4 0.00 0.00 0.00 88 1010.9
20260509043921 73 360 6.1 12.2 0.00 0.00 0.00 88 1010.9
20260509043822 73 360 6.1 12.2 0.00 0.00 0.00 88 1011.0
20260509043743 73 360 6.1 12.2 0.00 0.00 0.00 88 1011.0
20260509043623 73 360 6.1 12.2 0.00 0.00 0.00 88 1011.0
20260509043523 73 360 7.0 12.2 0.00 0.00 0.00 88 1011.0
20260509043423 73 360 7.0 12.2 0.00 0.00 0.00 88 1011.0
20260509043349 73 360 7.0 12.2 0.00 0.00 0.00 88 1011.0
20260509043228 73 360 7.0 12.2 0.00 0.00 0.00 88 1011.0
20260509043129 73 360 7.0 12.2 0.00 0.00 0.00 88 1010.9
20260509043029 73 360 7.0 12.2 0.00 0.00 0.00 88 1010.9
20260509042930 73 360 7.0 12.2 0.00 0.00 0.00 88 1010.9
20260509042831 73 360 7.0 12.2 0.00 0.00 0.00 88 1010.9
20260509042732 73 360 7.0 12.2 0.00 0.00 0.00 88 1010.9
20260509042616 73 360 7.0 12.2 0.00 0.00 0.00 88 1010.9
20260509042517 73 360 6.1 12.2 0.00 0.00 0.00 88 1011.0
20260509042417 73 360 6.1 12.2 0.00 0.00 0.00 88 1011.0
20260509042317 73 360 6.1 12.2 0.00 0.00 0.00 87 1011.0
20260509042218 73 360 6.1 12.2 0.00 0.00 0.00 87 1011.1
20260509042119 73 360 6.1 9.6 0.00 0.00 0.00 87 1011.1
20260509042022 73 360 6.1 9.6 0.00 0.00 0.00 87 1011.1
20260509041923 73 360 6.1 9.6 0.00 0.00 0.00 88 1011.1
20260509041823 73 360 6.1 9.6 0.00 0.00 0.00 88 1011.1
20260509041723 73 360 6.1 9.6 0.00 0.00 0.00 88 1011.2
20260509041623 73 360 5.2 9.6 0.00 0.00 0.00 87 1011.1
20260509041523 73 360 6.1 9.6 0.00 0.00 0.00 87 1011.1
20260509041422 73 360 5.2 9.6 0.00 0.00 0.00 87 1011.1
20260509041323 73 360 5.2 9.6 0.00 0.00 0.00 87 1011.1
20260509041248 73 360 5.2 9.6 0.00 0.00 0.00 87 1011.1
20260509041146 73 360 5.2 9.6 0.00 0.00 0.00 87 1011.1
20260509041026 73 360 5.2 9.6 0.00 0.00 0.00 87 1011.2
20260509040928 73 360 5.2 9.6 0.00 0.00 0.00 87 1011.2
20260509040828 73 360 5.2 9.6 0.00 0.00 0.00 87 1011.2
20260509040729 73 360 4.3 8.7 0.00 0.00 0.00 87 1011.2
20260509040627 73 360 4.3 8.7 0.00 0.00 0.00 87 1011.2
20260509040547 73 360 4.3 8.7 0.00 0.00 0.00 87 1011.2
20260509040431 73 360 4.3 8.7 0.00 0.00 0.00 87 1011.2
20260509040331 73 360 4.3 7.8 0.00 0.00 0.00 87 1011.3
20260509040231 73 360 3.5 7.0 0.00 0.00 0.00 87 1011.3
20260509040132 73 360 3.5 7.0 0.00 0.00 0.00 87 1011.3
20260509040033 73 360 4.3 7.0 0.00 0.00 0.00 87 1011.3
20260509035934 73 360 3.5 7.0 0.00 0.00 0.00 87 1011.3
20260509035819 73 360 3.5 7.0 0.00 0.00 0.00 87 1011.3
20260509035719 73 360 3.5 7.0 0.00 0.00 0.00 87 1011.4
20260509035618 73 360 3.5 7.0 0.00 0.00 0.00 87 1011.4
20260509035519 73 360 3.5 7.0 0.00 0.00 0.00 87 1011.3
20260509035419 73 360 3.5 7.0 0.00 0.00 0.00 87 1011.4
20260509035320 73 360 2.6 5.2 0.00 0.00 0.00 86 1011.4
20260509035241 73 360 2.6 5.2 0.00 0.00 0.00 86 1011.4
20260509035120 73 360 2.6 4.3 0.00 0.00 0.00 86 1011.4
20260509035025 73 360 2.6 5.2 0.00 0.00 0.00 86 1011.3
20260509034925 73 360 2.6 5.2 0.00 0.00 0.00 86 1011.3
20260509034846 73 360 2.6 5.2 0.00 0.00 0.00 86 1011.3
20260509034746 73 360 2.6 5.2 0.00 0.00 0.00 86 1011.3
20260509034624 73 360 2.6 5.2 0.00 0.00 0.00 86 1011.4
20260509034525 73 360 2.6 5.2 0.00 0.00 0.00 86 1011.3
20260509034426 73 360 2.6 5.2 0.00 0.00 0.00 86 1011.3
20260509034330 73 360 2.6 5.2 0.00 0.00 0.00 86 1011.3
20260509034230 73 360 1.7 5.2 0.00 0.00 0.00 86 1011.3
20260509034131 73 360 1.7 3.5 0.00 0.00 0.00 86 1011.3
20260509034030 73 360 1.7 3.5 0.00 0.00 0.00 86 1011.3
20260509033931 73 360 1.7 3.5 0.00 0.00 0.00 86 1011.2
20260509033831 73 360 1.7 3.5 0.00 0.00 0.00 86 1011.2
20260509033732 73 360 1.7 4.3 0.00 0.00 0.00 86 1011.3
20260509033616 73 360 1.7 4.3 0.00 0.00 0.00 86 1011.3
20260509033517 73 360 1.7 4.3 0.00 0.00 0.00 86 1011.3
20260509033418 73 360 1.7 4.3 0.00 0.00 0.00 86 1011.4
20260509033318 73 360 1.7 4.3 0.00 0.00 0.00 86 1011.3
20260509033220 73 360 1.7 4.3 0.00 0.00 0.00 86 1011.3
20260509033140 73 360 1.7 4.3 0.00 0.00 0.00 86 1011.4
20260509033021 73 360 1.7 4.3 0.00 0.00 0.00 86 1011.4
20260509032923 73 360 1.7 4.3 0.00 0.00 0.00 86 1011.4
20260509032825 73 360 1.7 4.3 0.00 0.00 0.00 86 1011.3
20260509032725 73 360 1.7 4.3 0.00 0.00 0.00 86 1011.3
20260509032626 73 360 1.7 4.3 0.00 0.00 0.00 86 1011.2
20260509032526 73 360 1.7 4.3 0.00 0.00 0.00 86 1011.2
20260509032427 73 360 1.7 3.5 0.00 0.00 0.00 86 1011.2
20260509032327 74 360 1.7 3.5 0.00 0.00 0.00 85 1011.3
20260509032231 74 360 1.7 3.5 0.00 0.00 0.00 85 1011.3
20260509032132 73 360 1.7 3.5 0.00 0.00 0.00 85 1011.2
20260509032035 74 360 1.7 3.5 0.00 0.00 0.00 85 1011.3
20260509031933 74 360 1.7 3.5 0.00 0.00 0.00 85 1011.2
20260509031835 74 360 1.7 3.5 0.00 0.00 0.00 85 1011.3
20260509031735 74 360 1.7 3.5 0.00 0.00 0.00 85 1011.3
20260509031655 74 360 2.6 4.3 0.00 0.00 0.00 85 1011.2
20260509031519 74 360 2.6 5.2 0.00 0.00 0.00 85 1011.3
20260509031419 74 360 2.6 5.2 0.00 0.00 0.00 85 1011.3
20260509031319 74 360 2.6 5.2 0.00 0.00 0.00 85 1011.2
20260509031220 74 360 2.6 5.2 0.00 0.00 0.00 85 1011.2
20260509031120 74 360 3.5 5.2 0.00 0.00 0.00 85 1011.2
20260509031020 74 360 3.5 5.2 0.00 0.00 0.00 85 1011.2
20260509030941 74 360 3.5 5.2 0.00 0.00 0.00 85 1011.1
20260509030824 74 360 3.5 5.2 0.00 0.00 0.00 85 1011.2
20260509030725 74 360 3.5 5.2 0.00 0.00 0.00 85 1011.2
20260509030624 74 360 3.5 5.2 0.00 0.00 0.00 85 1011.1
20260509030524 74 360 3.5 5.2 0.00 0.00 0.00 85 1011.1
20260509030424 74 360 3.5 5.2 0.00 0.00 0.00 85 1011.1
20260509030325 74 360 3.5 5.2 0.00 0.00 0.00 85 1011.0
20260509030226 74 360 3.5 5.2 0.00 0.00 0.00 85 1011.0
20260509030150 74 360 3.5 5.2 0.00 0.00 0.00 85 1011.0
20260509030110 74 360 3.5 5.2 0.00 0.00 0.00 85 1010.9
20260509025827 74 360 3.5 5.2 0.00 0.00 0.00 84 1010.8
20260509025729 74 360 3.5 5.2 0.00 0.00 0.00 84 1011.0
20260509025629 74 360 3.5 5.2 0.00 0.00 0.00 84 1010.9
20260509025550 74 360 3.5 5.2 0.00 0.00 0.00 84 1010.8
20260509025428 74 360 3.5 5.2 0.00 0.00 0.00 84 1010.8
20260509025329 74 360 3.5 5.2 0.00 0.00 0.00 84 1010.8
20260509025232 74 360 3.5 5.2 0.00 0.00 0.00 84 1010.8
20260509025132 74 360 2.6 5.2 0.00 0.00 0.00 84 1010.8
20260509025053 74 360 2.6 4.3 0.00 0.00 0.00 84 1010.7
20260509024953 74 360 2.6 4.3 0.00 0.00 0.00 84 1010.8
20260509024832 74 360 1.7 4.3 0.00 0.00 0.00 84 1010.8
20260509024753 74 360 1.7 4.3 0.00 0.00 0.00 84 1010.8
20260509024633 74 360 1.7 4.3 0.00 0.00 0.00 84 1010.9
20260509024517 74 360 2.6 4.3 0.00 0.00 0.00 84 1010.8
20260509024417 74 360 2.6 4.3 0.00 0.00 0.00 84 1010.7
20260509024338 74 360 2.6 4.3 0.00 0.00 0.00 84 1010.7
20260509024217 74 360 2.6 4.3 0.00 0.00 0.00 84 1010.8
20260509024117 74 360 2.6 4.3 0.00 0.00 0.00 84 1010.7
20260509024018 74 360 2.6 4.3 0.00 0.00 0.00 83 1010.7
20260509023918 74 360 2.6 4.3 0.00 0.00 0.00 83 1010.7
20260509023823 74 360 2.6 4.3 0.00 0.00 0.00 83 1010.7
20260509023723 74 360 2.6 4.3 0.00 0.00 0.00 83 1010.6
20260509023622 74 360 2.6 4.3 0.00 0.00 0.00 83 1010.7
20260509023520 74 360 2.6 4.3 0.00 0.00 0.00 83 1010.8
20260509023421 74 360 2.6 4.3 0.00 0.00 0.00 83 1010.7
20260509023321 75 360 2.6 4.3 0.00 0.00 0.00 83 1010.8
20260509023242 75 360 2.6 4.3 0.00 0.00 0.00 83 1010.8
20260509023121 75 360 2.6 4.3 0.00 0.00 0.00 83 1010.8
20260509023025 75 360 2.6 4.3 0.00 0.00 0.00 83 1010.8
20260509022946 75 360 1.7 4.3 0.00 0.00 0.00 83 1010.8
20260509022847 75 360 1.7 4.3 0.00 0.00 0.00 83 1010.8
20260509022745 75 360 1.7 3.5 0.00 0.00 0.00 83 1010.7
20260509022645 75 360 1.7 2.6 0.00 0.00 0.00 83 1010.7
20260509022524 75 360 0.9 2.6 0.00 0.00 0.00 83 1010.8
20260509022424 75 360 0.9 2.6 0.00 0.00 0.00 83 1010.8
20260509022325 75 360 0.9 2.6 0.00 0.00 0.00 83 1010.8
20260509022224 75 360 0.9 2.6 0.00 0.00 0.00 83 1010.7
20260509022149 75 360 0.9 2.6 0.00 0.00 0.00 83 1010.7
20260509022028 75 360 0.9 2.6 0.00 0.00 0.00 83 1010.8
20260509021929 75 360 0.9 2.6 0.00 0.00 0.00 83 1010.8
20260509021828 75 360 1.7 2.6 0.00 0.00 0.00 83 1010.8
20260509021729 75 360 1.7 5.2 0.00 0.00 0.00 83 1010.7
20260509021628 75 360 1.7 5.2 0.00 0.00 0.00 83 1010.8
20260509021529 75 360 1.7 5.2 0.00 0.00 0.00 83 1010.7
20260509021432 75 360 1.7 5.2 0.00 0.00 0.00 83 1010.6
20260509021333 75 360 1.7 5.2 0.00 0.00 0.00 82 1010.7
20260509021234 75 360 1.7 5.2 0.00 0.00 0.00 82 1010.5
20260509021135 75 360 1.7 5.2 0.00 0.00 0.00 82 1010.5
20260509021035 75 360 1.7 9.6 0.00 0.00 0.00 82 1010.5
20260509020935 75 360 2.6 9.6 0.00 0.00 0.00 82 1010.5
20260509020819 75 360 2.6 9.6 0.00 0.00 0.00 82 1010.4
20260509020740 75 360 2.6 9.6 0.00 0.00 0.00 82 1010.4
20260509020619 75 360 3.5 9.6 0.00 0.00 0.00 82 1010.4
20260509020520 75 360 3.5 9.6 0.00 0.00 0.00 82 1010.4
20260509020440 75 360 3.5 12.2 0.00 0.00 0.00 82 1010.3
20260509020319 75 360 3.5 12.2 0.00 0.00 0.00 82 1010.3
20260509020219 75 360 4.3 12.2 0.00 0.00 0.00 82 1010.3
20260509020119 75 360 4.3 12.2 0.00 0.00 0.00 82 1010.2
20260509020019 75 360 5.2 12.2 0.00 0.00 0.00 82 1010.2
20260509015923 75 360 5.2 12.2 0.00 0.00 0.00 82 1010.2
20260509015827 75 360 6.1 12.2 0.00 0.00 0.00 82 1010.2
20260509015725 75 360 6.1 12.2 0.00 0.00 0.00 82 1010.2
20260509015646 75 360 6.1 12.2 0.00 0.00 0.00 82 1010.1
20260509015525 75 360 6.1 11.3 0.00 0.00 0.00 82 1010.1
20260509015425 75 360 7.0 11.3 0.00 0.00 0.00 82 1010.1
20260509015346 75 360 7.0 11.3 0.00 0.00 0.00 82 1010.0
20260509015230 75 360 6.1 11.3 0.00 0.00 0.00 82 1010.0
20260509015131 76 360 6.1 11.3 0.00 0.00 0.00 81 1010.0
20260509015030 76 360 6.1 10.4 0.00 0.00 0.00 81 1010.0
20260509014932 76 360 5.2 10.4 0.00 0.00 0.00 81 1009.9
20260509014832 76 360 5.2 10.4 0.00 0.00 0.00 81 1010.0
20260509014753 76 360 5.2 10.4 0.00 0.00 0.00 81 1010.0
20260509014631 76 360 5.2 10.4 0.00 0.00 0.00 81 1010.0
20260509014530 76 360 5.2 10.4 0.00 0.00 0.00 81 1009.9
20260509014434 76 360 5.2 10.4 0.00 0.00 0.00 81 1010.0
20260509014335 76 360 5.2 10.4 0.00 0.00 0.00 81 1010.0
20260509014235 76 360 5.2 10.4 0.00 0.00 0.00 81 1010.0
20260509014155 76 360 5.2 8.7 0.00 0.00 0.00 81 1009.9
20260509014054 76 360 4.3 8.7 0.00 0.00 0.00 81 1009.9
20260509013933 76 360 4.3 8.7 0.00 0.00 0.00 81 1010.0
20260509013833 76 360 4.3 8.7 0.00 0.00 0.00 81 1009.9
20260509013732 76 360 4.3 8.7 0.00 0.00 0.00 81 1010.0
20260509013631 76 360 4.3 8.7 0.00 0.00 0.00 81 1010.0
20260509013535 76 360 4.3 8.7 0.00 0.00 0.00 81 1010.0
20260509013434 76 360 4.3 9.6 0.00 0.00 0.00 81 1010.0
20260509013333 76 360 4.3 9.6 0.00 0.00 0.00 81 1009.9
20260509013234 76 360 3.5 9.6 0.00 0.00 0.00 81 1010.0
20260509013135 76 360 3.5 9.6 0.00 0.00 0.00 81 1010.0
20260509013055 76 360 4.3 9.6 0.00 0.00 0.00 81 1010.1
20260509012935 76 360 4.3 9.6 0.00 0.00 0.00 81 1010.0
20260509012836 76 360 4.3 9.6 0.00 0.00 0.00 80 1010.0
20260509012718 76 360 4.3 7.8 0.00 0.00 0.00 80 1010.1
20260509012619 76 360 4.3 7.8 0.00 0.00 0.00 80 1010.0
20260509012519 76 360 4.3 7.8 0.00 0.00 0.00 80 1010.1
20260509012419 76 360 4.3 7.8 0.00 0.00 0.00 80 1010.0
20260509012320 76 360 4.3 7.8 0.00 0.00 0.00 80 1010.1
20260509012218 76 360 4.3 7.8 0.00 0.00 0.00 80 1010.1
20260509012119 76 360 3.5 7.8 0.00 0.00 0.00 80 1010.0
20260509012023 76 360 3.5 7.8 0.00 0.00 0.00 80 1010.1
20260509011924 76 360 3.5 7.8 0.00 0.00 0.00 80 1010.0
20260509011824 76 360 2.6 7.8 0.00 0.00 0.00 80 1010.1
20260509011724 76 360 3.5 7.8 0.00 0.00 0.00 80 1010.1
20260509011625 76 360 3.5 7.8 0.00 0.00 0.00 80 1010.1
20260509011525 76 360 3.5 8.7 0.00 0.00 0.00 80 1010.0
20260509011430 76 360 3.5 8.7 0.00 0.00 0.00 80 1010.0
20260509011330 76 360 3.5 8.7 0.00 0.00 0.00 80 1010.0
20260509011231 76 360 3.5 8.7 0.00 0.00 0.00 80 1010.0
20260509011132 76 360 4.3 8.7 0.00 0.00 0.00 80 1010.0
20260509011032 76 360 4.3 8.7 0.00 0.00 0.00 80 1010.1
20260509010933 76 360 4.3 8.7 0.00 0.00 0.00 80 1010.0
20260509010818 76 360 4.3 8.7 0.00 0.00 0.00 80 1010.0
20260509010719 76 360 4.3 8.7 0.00 0.00 0.00 80 1009.9
20260509010619 76 360 3.5 8.7 0.00 0.00 0.00 80 1010.0
20260509010520 76 360 3.5 8.7 0.00 0.00 0.00 80 1010.0
20260509010440 77 360 3.5 7.8 0.00 0.00 0.00 80 1010.1
20260509010320 77 360 3.5 7.8 0.00 0.00 0.00 80 1010.0
20260509010220 77 360 2.6 7.0 0.00 0.00 0.00 80 1010.0
20260509010125 77 360 2.6 10.4 0.00 0.00 0.00 80 1010.0
20260509010025 77 360 3.5 10.4 0.00 0.00 0.00 80 1010.0
20260509005924 77 360 3.5 10.4 0.00 0.00 0.00 80 1009.9
20260509005825 77 360 4.3 10.4 0.00 0.00 0.00 80 1010.0
20260509005746 76 360 5.2 10.4 0.00 0.00 0.00 80 1009.9
20260509005625 77 360 5.2 10.4 0.00 0.00 0.00 80 1009.8
20260509005525 77 360 5.2 10.4 0.00 0.00 0.00 80 1009.9
20260509005425 77 360 5.2 10.4 0.00 0.00 0.00 80 1009.9
20260509005330 77 360 5.2 10.4 0.00 0.00 0.00 80 1009.9
20260509005231 77 360 5.2 10.4 0.00 0.00 0.00 79 1009.9
20260509005129 77 360 5.2 10.4 0.00 0.00 0.00 79 1009.9
20260509005029 77 360 4.3 10.4 0.00 0.00 0.00 79 1009.9
20260509004930 77 360 4.3 10.4 0.00 0.00 0.00 79 1009.8
20260509004831 77 360 4.3 10.4 0.00 0.00 0.00 79 1009.8
20260509004752 77 360 5.2 10.4 0.00 0.00 0.00 79 1009.8
20260509004616 77 360 5.2 10.4 0.00 0.00 0.00 79 1009.9
20260509004517 77 360 5.2 10.4 0.00 0.00 0.00 79 1009.8
20260509004417 77 360 6.1 10.4 0.00 0.00 0.00 79 1009.8
20260509004318 77 360 6.1 10.4 0.00 0.00 0.00 79 1009.8
20260509004219 77 360 7.0 10.4 0.00 0.00 0.00 79 1009.8
20260509004120 77 360 6.1 10.4 0.00 0.00 0.00 79 1009.8
20260509004040 77 360 6.1 10.4 0.00 0.00 0.00 79 1009.8
20260509003924 77 360 6.1 10.4 0.00 0.00 0.00 79 1009.8
20260509003823 77 360 5.2 9.6 0.00 0.00 0.00 79 1009.9
20260509003724 77 360 5.2 9.6 0.00 0.00 0.00 79 1009.8
20260509003624 77 360 6.1 9.6 0.00 0.00 0.00 79 1009.8
20260509003545 77 360 6.1 9.6 0.00 0.00 0.00 79 1009.8
20260509003424 77 360 6.1 10.4 0.00 0.00 0.00 79 1009.7
20260509003345 77 360 6.1 10.4 0.00 0.00 0.00 79 1009.8
20260509003243 77 360 6.1 12.2 0.00 0.00 0.00 79 1009.8
20260509003127 77 360 7.0 12.2 0.00 0.00 0.00 79 1009.8
20260509003027 77 360 7.0 12.2 0.00 0.00 0.00 79 1009.8
20260509002928 77 360 7.0 11.3 0.00 0.00 0.00 79 1009.8
20260509002828 77 360 7.0 11.3 0.00 0.00 0.00 79 1009.8
20260509002730 77 360 7.8 11.3 0.00 0.00 0.00 79 1009.8
20260509002629 77 360 7.0 11.3 0.00 0.00 0.00 79 1009.8
20260509002535 77 360 7.0 11.3 0.00 0.00 0.00 79 1009.9
20260509002455 77 360 7.0 11.3 0.00 0.00 0.00 79 1009.9
20260509002334 77 360 6.1 9.6 0.00 0.00 0.00 78 1009.9
20260509002235 77 360 6.1 9.6 0.00 0.00 0.00 78 1009.9
20260509002156 77 360 6.1 9.6 0.00 0.00 0.00 78 1009.8
20260509002056 77 360 6.1 9.6 0.00 0.00 0.00 78 1009.9
20260509001934 77 360 5.2 7.8 0.00 0.00 0.00 78 1009.9
20260509001835 77 360 5.2 8.7 0.00 0.00 0.00 78 1009.9
20260509001720 77 360 5.2 8.7 0.00 0.00 0.00 78 1010.0
20260509001620 77 360 4.3 8.7 0.00 0.00 0.00 78 1009.9
20260509001522 77 360 4.3 8.7 0.00 0.00 0.00 78 1009.9
20260509001421 77 360 4.3 8.7 0.00 0.00 0.00 78 1009.9
20260509001322 77 360 4.3 8.7 0.00 0.00 0.00 79 1010.0
20260509001223 77 360 5.2 13.0 0.00 0.00 0.00 78 1009.9
20260509001127 77 360 5.2 13.0 0.00 0.00 0.00 78 1010.0
20260509001028 77 360 5.2 13.0 0.00 0.00 0.00 78 1010.0
20260509000948 77 360 6.1 13.0 0.00 0.00 0.00 78 1009.9
20260509000828 77 360 6.1 13.0 0.00 0.00 0.00 78 1009.9
20260509000729 77 360 7.0 13.0 0.00 0.00 0.00 78 1010.0
20260509000630 77 360 7.0 13.0 0.00 0.00 0.00 78 1010.0
20260509000549 77 360 7.0 13.0 0.00 0.00 0.00 78 1010.0
20260509000429 78 360 7.0 13.0 0.00 0.00 0.00 78 1009.9
20260509000333 78 360 6.1 13.0 0.00 0.00 0.00 78 1010.0
20260509000234 78 360 6.1 13.0 0.00 0.00 0.00 77 1010.0
20260509000135 78 360 6.1 12.2 0.00 0.00 0.00 77 1010.0
20260509000016 78 360 6.1 12.2 0.00 0.00 0.00 77 1010.0
20260508235917 78 360 7.8 12.2 0.00 0.00 0.00 77 1009.9
20260508235819 78 360 7.8 12.2 0.00 0.00 0.00 77 1009.9
20260508235742 78 360 7.8 12.2 0.00 0.00 0.00 77 1010.0
20260508235621 78 360 7.8 12.2 0.00 0.00 0.00 77 1009.9
20260508235521 78 360 7.0 11.3 0.00 0.00 0.00 77 1009.9
20260508235442 78 360 6.1 11.3 0.00 0.00 0.00 77 1009.8
20260508235341 78 360 5.2 10.4 0.00 0.00 0.00 77 1009.9
20260508235221 78 360 5.2 10.4 0.00 0.00 0.00 77 1009.9
20260508235122 78 360 5.2 10.4 0.00 0.00 0.00 77 1009.9
20260508235021 78 360 5.2 10.4 0.00 0.00 0.00 77 1009.9
20260508234926 78 360 6.1 10.4 0.00 0.00 0.00 77 1009.9
20260508234847 78 360 6.1 10.4 0.00 0.00 0.00 77 1009.9
20260508234727 78 360 6.1 10.4 0.00 0.00 0.00 77 1009.9
20260508234627 78 360 6.1 10.4 0.00 0.00 0.00 76 1009.9
20260508234527 78 360 6.1 10.4 0.00 0.00 0.00 76 1009.9
20260508234427 78 360 6.1 10.4 0.00 0.00 0.00 76 1009.9
20260508234327 78 360 6.1 10.4 0.00 0.00 0.00 76 1009.8
20260508234232 78 360 5.2 10.4 0.00 0.00 0.00 76 1009.8
20260508234133 78 360 6.1 10.4 0.00 0.00 0.00 76 1009.9
20260508234033 78 360 5.2 10.4 0.00 0.00 0.00 76 1009.9
20260508233934 78 360 5.2 10.4 0.00 0.00 0.00 76 1009.8
20260508233835 78 360 5.2 11.3 0.00 0.00 0.00 76 1009.9
20260508233734 78 360 6.1 13.0 0.00 0.00 0.00 76 1009.8
20260508233619 78 360 7.0 13.0 0.00 0.00 0.00 76 1009.9
20260508233520 78 360 6.1 13.0 0.00 0.00 0.00 76 1009.9
20260508233441 78 360 7.0 13.0 0.00 0.00 0.00 76 1009.9
20260508233320 78 360 7.0 13.0 0.00 0.00 0.00 76 1009.9
20260508233220 78 360 7.0 13.0 0.00 0.00 0.00 76 1009.9
20260508233121 78 360 7.0 13.0 0.00 0.00 0.00 76 1009.9
20260508233022 78 360 7.0 13.0 0.00 0.00 0.00 76 1009.9
20260508232927 78 360 7.0 13.0 0.00 0.00 0.00 76 1009.9
20260508232828 78 360 7.8 13.0 0.00 0.00 0.00 76 1009.9
20260508232747 78 360 7.8 13.0 0.00 0.00 0.00 76 1009.9
20260508232626 78 360 7.0 13.0 0.00 0.00 0.00 76 1009.8
20260508232526 78 360 7.0 13.0 0.00 0.00 0.00 76 1009.8
20260508232426 78 360 7.0 11.3 0.00 0.00 0.00 76 1009.8
20260508232326 78 360 7.0 13.0 0.00 0.00 0.00 76 1009.7
20260508232231 78 360 7.8 13.0 0.00 0.00 0.00 76 1009.7
20260508232152 78 360 7.0 13.0 0.00 0.00 0.00 76 1009.8
20260508232031 78 360 7.0 13.0 0.00 0.00 0.00 76 1009.8
20260508231931 78 360 7.0 13.0 0.00 0.00 0.00 76 1009.8
20260508231831 78 360 7.0 13.0 0.00 0.00 0.00 76 1009.8
20260508231730 78 360 7.8 13.0 0.00 0.00 0.00 76 1009.7
20260508231630 78 360 7.8 13.0 0.00 0.00 0.00 76 1009.8
20260508231531 78 360 7.8 13.0 0.00 0.00 0.00 76 1009.8
20260508231435 78 360 7.0 13.0 0.00 0.00 0.00 76 1009.8
20260508231335 78 360 6.1 11.3 0.00 0.00 0.00 76 1009.8
20260508231256 78 360 6.1 11.3 0.00 0.00 0.00 76 1009.8
20260508231134 78 360 6.1 11.3 0.00 0.00 0.00 76 1009.8
20260508231035 78 360 7.0 11.3 0.00 0.00 0.00 76 1009.8
20260508230916 78 360 7.0 13.0 0.00 0.00 0.00 75 1009.8
20260508230818 78 360 7.0 13.0 0.00 0.00 0.00 75 1009.8
20260508230722 78 360 7.0 13.0 0.00 0.00 0.00 75 1009.9
20260508230621 78 360 7.0 13.0 0.00 0.00 0.00 75 1010.0
20260508230541 78 360 7.8 13.0 0.00 0.00 0.00 75 1009.9
20260508230422 78 360 7.8 13.0 0.00 0.00 0.00 75 1010.0
20260508230321 78 360 7.8 13.0 0.00 0.00 0.00 75 1009.8
20260508230222 78 360 7.8 13.0 0.00 0.00 0.00 75 1009.9
20260508230123 78 360 7.8 13.0 0.00 0.00 0.00 75 1009.9
20260508230023 78 360 7.8 12.2 0.00 0.00 0.00 75 1009.9
20260508225927 78 360 7.8 12.2 0.00 0.00 0.00 75 1009.9
20260508225829 78 360 7.8 12.2 0.00 0.00 0.00 75 1010.0
20260508225727 78 360 7.8 12.2 0.00 0.00 0.00 75 1009.9
20260508225628 78 360 7.8 12.2 0.00 0.00 0.00 75 1009.9
20260508225528 78 360 7.8 12.2 0.00 0.00 0.00 75 1009.9
20260508225428 78 360 7.0 12.2 0.00 0.00 0.00 75 1009.9
20260508225332 78 360 7.0 11.3 0.00 0.00 0.00 75 1010.0
20260508225232 78 360 7.0 12.2 0.00 0.00 0.00 75 1009.9
20260508225134 78 360 7.0 12.2 0.00 0.00 0.00 75 1009.9
20260508225035 78 360 7.0 12.2 0.00 0.00 0.00 75 1010.0
20260508224956 78 360 7.8 12.2 0.00 0.00 0.00 75 1009.9
20260508224836 78 360 7.0 12.2 0.00 0.00 0.00 75 1009.9
20260508224716 78 360 7.0 12.2 0.00 0.00 0.00 75 1009.9
20260508224621 78 360 7.0 12.2 0.00 0.00 0.00 75 1010.0
20260508224541 79 360 7.8 13.0 0.00 0.00 0.00 75 1009.9
20260508224421 79 360 7.8 13.0 0.00 0.00 0.00 75 1009.9
20260508224321 79 360 8.7 13.0 0.00 0.00 0.00 74 1009.8
20260508224222 79 360 7.8 13.0 0.00 0.00 0.00 74 1009.8
20260508224143 79 360 7.8 13.0 0.00 0.00 0.00 74 1009.9
20260508224022 79 360 8.7 13.0 0.00 0.00 0.00 74 1009.8
20260508223927 79 360 8.7 13.0 0.00 0.00 0.00 74 1009.8
20260508223847 79 360 8.7 13.0 0.00 0.00 0.00 74 1009.8
20260508223727 79 360 7.8 13.0 0.00 0.00 0.00 74 1009.8
20260508223627 79 360 7.8 10.4 0.00 0.00 0.00 74 1009.8
20260508223528 79 360 7.0 10.4 0.00 0.00 0.00 74 1009.8
20260508223448 79 360 6.1 11.3 0.00 0.00 0.00 74 1009.8
20260508223328 79 360 6.1 12.2 0.00 0.00 0.00 74 1009.9
20260508223228 79 360 5.2 12.2 0.00 0.00 0.00 74 1009.9
20260508223132 79 360 5.2 12.2 0.00 0.00 0.00 74 1009.9
20260508223032 79 360 6.1 12.2 0.00 0.00 0.00 74 1009.9
20260508222954 79 360 7.0 12.2 0.00 0.00 0.00 74 1009.9
20260508222852 79 360 7.8 12.2 0.00 0.00 0.00 74 1010.0
20260508222753 79 360 7.0 13.0 0.00 0.00 0.00 74 1009.9
20260508222632 79 360 7.0 13.0 0.00 0.00 0.00 74 1009.9
20260508222533 79 360 6.1 13.0 0.00 0.00 0.00 74 1009.9
20260508222416 79 360 4.3 13.0 0.00 0.00 0.00 74 1009.8
20260508222316 79 360 5.2 13.0 0.00 0.00 0.00 74 1009.8
20260508222216 79 360 6.1 13.0 0.00 0.00 0.00 74 1009.9
20260508222137 79 360 7.0 13.0 0.00 0.00 0.00 74 1009.9
20260508222016 79 360 7.0 13.0 0.00 0.00 0.00 74 1009.9
20260508221937 79 360 7.0 13.0 0.00 0.00 0.00 74 1009.9
20260508221857 79 360 7.0 13.0 0.00 0.00 0.00 74 1009.9
20260508221716 79 360 6.1 10.4 0.00 0.00 0.00 73 1009.9
20260508221620 79 360 6.1 10.4 0.00 0.00 0.00 73 1010.0
20260508221521 79 360 5.2 10.4 0.00 0.00 0.00 74 1010.0
20260508221421 79 360 4.3 10.4 0.00 0.00 0.00 74 1010.0
20260508221320 79 360 4.3 10.4 0.00 0.00 0.00 74 1010.0
20260508221220 79 360 3.5 11.3 0.00 0.00 0.00 74 1010.0
20260508221121 79 360 3.5 11.3 0.00 0.00 0.00 74 1010.0
20260508221022 79 360 3.5 11.3 0.00 0.00 0.00 74 1010.1
20260508220943 79 360 4.3 11.3 0.00 0.00 0.00 74 1010.0
20260508220826 79 360 6.1 11.3 0.00 0.00 0.00 74 1010.0
20260508220748 79 360 7.0 11.3 0.00 0.00 0.00 74 1010.0
20260508220627 79 360 7.8 13.0 0.00 0.00 0.00 73 1010.0
20260508220547 79 360 7.0 13.0 0.00 0.00 0.00 74 1010.1
20260508220427 79 360 7.0 13.0 0.00 0.00 0.00 74 1010.1
20260508220328 79 360 6.1 13.0 0.00 0.00 0.00 73 1010.1
20260508220228 79 360 5.2 13.0 0.00 0.00 0.00 73 1010.0
20260508220132 79 360 6.1 13.0 0.00 0.00 0.00 73 1010.0
20260508220053 79 360 7.0 13.0 0.00 0.00 0.00 73 1010.0
20260508215933 79 360 6.1 13.0 0.00 0.00 0.00 73 1010.0
20260508215833 79 360 6.1 13.0 0.00 0.00 0.00 73 1010.1
20260508215735 79 360 7.0 13.0 0.00 0.00 0.00 73 1010.1
20260508215635 80 360 6.1 13.0 0.00 0.00 0.00 73 1010.1
20260508215516 80 360 5.2 10.4 0.00 0.00 0.00 73 1010.1
20260508215420 80 360 6.1 10.4 0.00 0.00 0.00 73 1010.0
20260508215321 80 360 6.1 10.4 0.00 0.00 0.00 73 1010.1
20260508215219 79 360 7.0 10.4 0.00 0.00 0.00 73 1010.1
20260508215121 79 360 7.0 10.4 0.00 0.00 0.00 73 1010.0
20260508215021 79 360 7.0 10.4 0.00 0.00 0.00 72 1010.1
20260508214921 79 360 6.1 10.4 0.00 0.00 0.00 72 1010.1
20260508214822 80 360 6.1 10.4 0.00 0.00 0.00 73 1010.1
20260508214726 80 360 5.2 10.4 0.00 0.00 0.00 73 1010.1
20260508214627 80 360 5.2 10.4 0.00 0.00 0.00 73 1010.1
20260508214548 79 360 5.2 10.4 0.00 0.00 0.00 73 1010.1
20260508214447 79 360 5.2 10.4 0.00 0.00 0.00 73 1010.1
20260508214326 79 360 4.3 11.3 0.00 0.00 0.00 73 1010.1
20260508214226 79 360 4.3 11.3 0.00 0.00 0.00 73 1010.1
20260508214127 79 360 4.3 11.3 0.00 0.00 0.00 73 1010.1
20260508214028 79 360 4.3 12.2 0.00 0.00 0.00 73 1010.2
20260508213931 79 360 4.3 12.2 0.00 0.00 0.00 73 1010.1
20260508213832 79 360 5.2 12.2 0.00 0.00 0.00 73 1010.1
20260508213749 79 360 6.1 12.2 0.00 0.00 0.00 73 1010.1
20260508213649 79 360 6.1 12.2 0.00 0.00 0.00 73 1010.1
20260508213549 79 360 6.1 12.2 0.00 0.00 0.00 73 1010.1
20260508213428 79 360 7.0 12.2 0.00 0.00 0.00 73 1010.2
20260508213349 79 360 6.1 11.3 0.00 0.00 0.00 73 1010.1
20260508213248 79 360 6.1 11.3 0.00 0.00 0.00 73 1010.1
20260508213128 79 360 5.2 10.4 0.00 0.00 0.00 73 1010.1
20260508213031 79 360 5.2 10.4 0.00 0.00 0.00 73 1010.1
20260508212932 79 360 4.3 10.4 0.00 0.00 0.00 73 1010.2
20260508212832 79 360 3.5 10.4 0.00 0.00 0.00 73 1010.2
20260508212735 79 360 4.3 10.4 0.00 0.00 0.00 73 1010.2
20260508212654 79 360 5.2 10.4 0.00 0.00 0.00 73 1010.2
20260508212534 79 360 5.2 10.4 0.00 0.00 0.00 73 1010.2
20260508212419 79 360 6.1 10.4 0.00 0.00 0.00 73 1010.2
20260508212319 78 360 6.1 10.4 0.00 0.00 0.00 73 1010.3
20260508212219 78 360 6.1 10.4 0.00 0.00 0.00 74 1010.3
20260508212119 78 360 6.1 10.4 0.00 0.00 0.00 74 1010.3
20260508212019 78 360 5.2 10.4 0.00 0.00 0.00 74 1010.4
20260508211919 79 360 6.1 10.4 0.00 0.00 0.00 74 1010.4
20260508211820 79 360 6.1 10.4 0.00 0.00 0.00 74 1010.4
20260508211725 78 360 6.1 10.4 0.00 0.00 0.00 74 1010.4
20260508211623 78 360 6.1 10.4 0.00 0.00 0.00 74 1010.4
20260508211543 78 360 6.1 10.4 0.00 0.00 0.00 74 1010.5
20260508211423 78 360 6.1 10.4 0.00 0.00 0.00 74 1010.5
20260508211343 78 360 6.1 10.4 0.00 0.00 0.00 74 1010.5
20260508211222 78 360 6.1 10.4 0.00 0.00 0.00 74 1010.5
20260508211142 78 360 6.1 10.4 0.00 0.00 0.00 74 1010.5
20260508211022 78 360 6.1 10.4 0.00 0.00 0.00 74 1010.6
20260508210942 78 360 6.1 10.4 0.00 0.00 0.00 74 1010.6
20260508210827 78 360 6.1 10.4 0.00 0.00 0.00 74 1010.6
20260508210727 78 360 6.1 10.4 0.00 0.00 0.00 74 1010.6
20260508210627 78 360 6.1 10.4 0.00 0.00 0.00 74 1010.6
20260508210528 78 360 6.1 10.4 0.00 0.00 0.00 74 1010.6
20260508210428 78 360 5.2 10.4 0.00 0.00 0.00 74 1010.7
20260508210329 78 360 5.2 9.6 0.00 0.00 0.00 74 1010.8
20260508210229 78 360 5.2 9.6 0.00 0.00 0.00 74 1010.7
20260508210134 78 360 4.3 9.6 0.00 0.00 0.00 74 1010.8
20260508210034 78 360 5.2 9.6 0.00 0.00 0.00 74 1010.8
20260508205935 78 360 5.2 9.6 0.00 0.00 0.00 74 1010.8
20260508205834 78 360 4.3 9.6 0.00 0.00 0.00 74 1010.8
20260508205736 78 360 5.2 9.6 0.00 0.00 0.00 74 1010.8
20260508205616 78 360 5.2 9.6 0.00 0.00 0.00 73 1010.8
20260508205520 78 360 6.1 9.6 0.00 0.00 0.00 73 1010.9
20260508205420 78 360 6.1 11.3 0.00 0.00 0.00 73 1010.8
20260508205321 78 360 6.1 11.3 0.00 0.00 0.00 73 1010.8
20260508205242 78 360 6.1 11.3 0.00 0.00 0.00 73 1010.8
20260508205122 78 360 6.1 11.3 0.00 0.00 0.00 74 1010.8
20260508205022 78 360 7.0 11.3 0.00 0.00 0.00 73 1010.8
20260508204922 78 360 7.0 11.3 0.00 0.00 0.00 73 1010.8
20260508204828 79 360 7.0 11.3 0.00 0.00 0.00 73 1010.8
20260508204728 79 360 6.1 11.3 0.00 0.00 0.00 72 1010.8
20260508204627 79 360 6.1 11.3 0.00 0.00 0.00 72 1010.8
20260508204528 79 360 6.1 10.4 0.00 0.00 0.00 72 1010.9
20260508204428 79 360 6.1 10.4 0.00 0.00 0.00 72 1010.8
20260508204328 79 360 6.1 10.4 0.00 0.00 0.00 72 1010.9
20260508204228 79 360 6.1 9.6 0.00 0.00 0.00 72 1010.9
20260508204133 79 360 6.1 9.6 0.00 0.00 0.00 71 1010.8
20260508204053 80 360 6.1 9.6 0.00 0.00 0.00 72 1010.8
20260508203933 79 360 5.2 9.6 0.00 0.00 0.00 72 1010.9
20260508203854 79 360 5.2 9.6 0.00 0.00 0.00 72 1011.0
20260508203733 80 360 5.2 11.3 0.00 0.00 0.00 72 1010.9
20260508203654 80 360 5.2 11.3 0.00 0.00 0.00 72 1011.0
20260508203533 80 360 4.3 11.3 0.00 0.00 0.00 72 1011.0
20260508203433 79 360 5.2 11.3 0.00 0.00 0.00 72 1010.8
20260508203317 79 360 5.2 11.3 0.00 0.00 0.00 72 1010.9
20260508203218 79 360 6.1 11.3 0.00 0.00 0.00 71 1011.0
20260508203119 79 360 6.1 11.3 0.00 0.00 0.00 71 1011.0
20260508203019 80 360 6.1 11.3 0.00 0.00 0.00 71 1011.0
20260508202920 80 360 5.2 11.3 0.00 0.00 0.00 70 1011.0
20260508202822 80 360 5.2 9.6 0.00 0.00 0.00 70 1011.0
20260508202725 80 360 5.2 8.7 0.00 0.00 0.00 71 1011.1
20260508202626 80 360 4.3 7.8 0.00 0.00 0.00 71 1011.1
20260508202526 80 360 4.3 9.6 0.00 0.00 0.00 70 1011.0
20260508202426 80 360 4.3 9.6 0.00 0.00 0.00 70 1011.1
20260508202325 80 360 3.5 9.6 0.00 0.00 0.00 70 1011.0
20260508202225 80 360 3.5 9.6 0.00 0.00 0.00 70 1011.0
20260508202126 81 360 2.6 9.6 0.00 0.00 0.00 70 1011.1
20260508202031 81 360 3.5 9.6 0.00 0.00 0.00 70 1011.1
20260508201930 81 360 4.3 9.6 0.00 0.00 0.00 70 1011.0
20260508201851 81 360 4.3 9.6 0.00 0.00 0.00 69 1011.1
20260508201751 81 360 4.3 9.6 0.00 0.00 0.00 68 1011.2
20260508201650 81 360 4.3 9.6 0.00 0.00 0.00 69 1011.1
20260508201529 81 360 3.5 8.7 0.00 0.00 0.00 68 1011.2
20260508201429 81 360 3.5 8.7 0.00 0.00 0.00 69 1011.2
20260508201351 81 360 4.3 8.7 0.00 0.00 0.00 68 1011.2
20260508201231 81 360 3.5 8.7 0.00 0.00 0.00 68 1011.2
20260508201136 81 360 3.5 8.7 0.00 0.00 0.00 68 1011.2
20260508201016 81 360 2.6 5.2 0.00 0.00 0.00 68 1011.2
20260508200917 81 360 2.6 5.2 0.00 0.00 0.00 69 1011.2
20260508200837 81 360 2.6 5.2 0.00 0.00 0.00 69 1011.2
20260508200717 81 360 2.6 9.6 0.00 0.00 0.00 69 1011.2
20260508200617 81 360 2.6 9.6 0.00 0.00 0.00 69 1011.2
20260508200522 81 360 3.5 9.6 0.00 0.00 0.00 69 1011.2
20260508200423 81 360 3.5 9.6 0.00 0.00 0.00 69 1011.2
20260508200324 81 360 3.5 9.6 0.00 0.00 0.00 70 1011.3
20260508200224 81 360 3.5 9.6 0.00 0.00 0.00 70 1011.2
20260508200145 81 360 2.6 9.6 0.00 0.00 0.00 70 1011.2
20260508200022 80 360 3.5 9.6 0.00 0.00 0.00 70 1011.3
20260508195943 80 360 3.5 11.3 0.00 0.00 0.00 70 1011.3
20260508195823 80 360 4.3 11.3 0.00 0.00 0.00 71 1011.3
20260508195729 79 360 5.2 11.3 0.00 0.00 0.00 71 1011.3
20260508195628 79 360 6.1 11.3 0.00 0.00 0.00 71 1011.3
20260508195528 79 360 6.1 11.3 0.00 0.00 0.00 70 1011.2
20260508195430 79 360 6.1 11.3 0.00 0.00 0.00 70 1011.3
20260508195331 79 360 6.1 11.3 0.00 0.00 0.00 71 1011.3
20260508195230 79 360 7.0 11.3 0.00 0.00 0.00 71 1011.2
20260508195130 79 360 6.1 11.3 0.00 0.00 0.00 71 1011.3
20260508195055 79 360 6.1 11.3 0.00 0.00 0.00 71 1011.2
20260508194934 79 360 5.2 10.4 0.00 0.00 0.00 72 1011.2
20260508194834 78 360 6.1 10.4 0.00 0.00 0.00 72 1011.2
20260508194734 78 360 6.1 10.4 0.00 0.00 0.00 72 1011.2
20260508194635 78 360 6.1 10.4 0.00 0.00 0.00 72 1011.3
20260508194555 78 360 7.0 10.4 0.00 0.00 0.00 71 1011.3
20260508194434 78 360 7.0 10.4 0.00 0.00 0.00 71 1011.3
20260508194319 79 360 6.1 10.4 0.00 0.00 0.00 71 1011.4
20260508194218 79 360 5.2 9.6 0.00 0.00 0.00 71 1011.5
20260508194119 79 360 5.2 9.6 0.00 0.00 0.00 70 1011.5
20260508194020 79 360 4.3 9.6 0.00 0.00 0.00 71 1011.5
20260508193920 79 360 4.3 9.6 0.00 0.00 0.00 71 1011.5
20260508193821 79 360 5.2 13.0 0.00 0.00 0.00 71 1011.6
20260508193724 79 360 5.2 13.0 0.00 0.00 0.00 71 1011.6
20260508193626 79 360 5.2 13.0 0.00 0.00 0.00 71 1011.6
20260508193545 79 360 5.2 13.0 0.00 0.00 0.00 70 1011.6
20260508193425 79 360 5.2 13.0 0.00 0.00 0.00 70 1011.7
20260508193326 79 360 5.2 13.0 0.00 0.00 0.00 70 1011.7
20260508193226 79 360 6.1 13.0 0.00 0.00 0.00 70 1011.6
20260508193126 79 360 5.2 13.0 0.00 0.00 0.00 71 1011.6
20260508193030 80 360 6.1 13.0 0.00 0.00 0.00 71 1011.6
20260508192929 80 360 4.3 13.0 0.00 0.00 0.00 71 1011.6
20260508192850 80 360 4.3 9.6 0.00 0.00 0.00 72 1011.6
20260508192727 79 360 5.2 9.6 0.00 0.00 0.00 72 1011.6
20260508192627 79 360 5.2 9.6 0.00 0.00 0.00 73 1011.6
20260508192547 78 360 5.2 9.6 0.00 0.00 0.00 73 1011.6
20260508192426 78 360 7.0 9.6 0.00 0.00 0.00 73 1011.7
20260508192346 78 360 6.1 9.6 0.00 0.00 0.00 73 1011.6
20260508192226 78 360 7.0 9.6 0.00 0.00 0.00 72 1011.7
20260508192130 78 360 6.1 9.6 0.00 0.00 0.00 73 1011.7
20260508192030 77 360 6.1 9.6 0.00 0.00 0.00 73 1011.6
20260508191951 77 360 6.1 9.6 0.00 0.00 0.00 73 1011.7
20260508191850 77 360 5.2 8.7 0.00 0.00 0.00 72 1011.7
20260508191729 78 360 5.2 8.7 0.00 0.00 0.00 72 1011.7
20260508191630 78 360 4.3 8.7 0.00 0.00 0.00 72 1011.7
20260508191529 78 360 3.5 7.0 0.00 0.00 0.00 72 1011.8
20260508191430 78 360 3.5 7.8 0.00 0.00 0.00 72 1011.7
20260508191316 78 360 3.5 7.8 0.00 0.00 0.00 72 1011.8
20260508191216 78 360 3.5 7.8 0.00 0.00 0.00 72 1011.8
20260508191117 78 360 3.5 7.8 0.00 0.00 0.00 72 1011.8
20260508191018 78 360 4.3 9.6 0.00 0.00 0.00 72 1011.8
20260508190917 78 360 4.3 9.6 0.00 0.00 0.00 71 1011.8
20260508190818 78 360 4.3 9.6 0.00 0.00 0.00 71 1011.8
20260508190722 78 360 4.3 9.6 0.00 0.00 0.00 71 1011.8
20260508190622 78 360 3.5 9.6 0.00 0.00 0.00 71 1011.8
20260508190524 78 360 4.3 9.6 0.00 0.00 0.00 71 1011.8
20260508190422 78 360 3.5 9.6 0.00 0.00 0.00 70 1011.9
20260508190322 78 360 5.2 9.6 0.00 0.00 0.00 71 1011.9
20260508190223 78 360 5.2 9.6 0.00 0.00 0.00 70 1011.8
20260508190124 78 360 5.2 9.6 0.00 0.00 0.00 70 1011.9
20260508190029 78 360 5.2 9.6 0.00 0.00 0.00 70 1011.9
20260508185930 78 360 4.3 7.8 0.00 0.00 0.00 70 1011.8
20260508185830 78 360 3.5 7.0 0.00 0.00 0.00 70 1011.8
20260508185731 78 360 3.5 7.0 0.00 0.00 0.00 70 1011.9
20260508185651 78 360 3.5 7.8 0.00 0.00 0.00 70 1011.9
20260508185529 78 360 3.5 7.8 0.00 0.00 0.00 70 1012.0
20260508185447 78 360 3.5 7.8 0.00 0.00 0.00 70 1012.0
20260508185329 78 360 3.5 9.6 0.00 0.00 0.00 71 1012.0
20260508185230 78 360 4.3 9.6 0.00 0.00 0.00 71 1012.0
20260508185131 78 360 4.3 9.6 0.00 0.00 0.00 71 1012.1
20260508185030 78 360 5.2 9.6 0.00 0.00 0.00 71 1012.0
20260508184932 77 360 5.2 9.6 0.00 0.00 0.00 70 1011.9
20260508184852 77 360 6.1 9.6 0.00 0.00 0.00 71 1012.0
20260508184732 77 360 6.1 9.6 0.00 0.00 0.00 70 1012.0
20260508184616 78 360 5.2 9.6 0.00 0.00 0.00 70 1011.9
20260508184516 78 360 4.3 9.6 0.00 0.00 0.00 70 1011.9
20260508184416 78 360 3.5 9.6 0.00 0.00 0.00 70 1012.0
20260508184317 78 360 3.5 9.6 0.00 0.00 0.00 70 1012.0
20260508184217 78 360 3.5 9.6 0.00 0.00 0.00 70 1012.0
20260508184138 78 360 3.5 9.6 0.00 0.00 0.00 70 1012.0
20260508184016 78 360 3.5 9.6 0.00 0.00 0.00 70 1012.0
20260508183922 78 360 4.3 9.6 0.00 0.00 0.00 70 1012.1
20260508183823 78 360 4.3 9.6 0.00 0.00 0.00 70 1012.0
20260508183744 78 360 5.2 9.6 0.00 0.00 0.00 70 1012.1
20260508183643 78 360 5.2 9.6 0.00 0.00 0.00 70 1012.0
20260508183522 78 360 5.2 9.6 0.00 0.00 0.00 69 1012.0
20260508183423 78 360 4.3 9.6 0.00 0.00 0.00 69 1012.1
20260508183323 78 360 4.3 10.4 0.00 0.00 0.00 69 1012.1
20260508183228 78 360 5.2 12.2 0.00 0.00 0.00 70 1012.1
20260508183126 78 360 5.2 12.2 0.00 0.00 0.00 70 1012.0
20260508183028 77 360 5.2 12.2 0.00 0.00 0.00 70 1012.1
20260508182928 77 360 5.2 12.2 0.00 0.00 0.00 70 1012.1
20260508182828 77 360 6.1 12.2 0.00 0.00 0.00 70 1012.2
20260508182729 77 360 6.1 12.2 0.00 0.00 0.00 70 1012.3
20260508182628 77 360 7.0 12.2 0.00 0.00 0.00 70 1012.3
20260508182531 77 360 7.8 12.2 0.00 0.00 0.00 70 1012.3
20260508182432 77 360 7.8 12.2 0.00 0.00 0.00 70 1012.3
20260508182333 77 360 7.8 11.3 0.00 0.00 0.00 70 1012.3
20260508182231 77 360 7.0 11.3 0.00 0.00 0.00 70 1012.5
20260508182132 77 360 5.2 9.6 0.00 0.00 0.00 69 1012.3
20260508182033 77 360 5.2 9.6 0.00 0.00 0.00 69 1012.4
20260508181933 77 360 5.2 9.6 0.00 0.00 0.00 71 1012.5
20260508181817 77 360 5.2 9.6 0.00 0.00 0.00 70 1012.5
20260508181718 77 360 6.1 9.6 0.00 0.00 0.00 70 1012.5
20260508181617 77 360 6.1 9.6 0.00 0.00 0.00 71 1012.5
20260508181518 77 360 6.1 9.6 0.00 0.00 0.00 71 1012.5
20260508181418 77 360 6.1 9.6 0.00 0.00 0.00 70 1012.4
20260508181319 77 360 6.1 9.6 0.00 0.00 0.00 70 1012.4
20260508181239 77 360 5.2 9.6 0.00 0.00 0.00 70 1012.4
20260508181123 77 360 5.2 9.6 0.00 0.00 0.00 70 1012.5
20260508181024 77 360 4.3 8.7 0.00 0.00 0.00 70 1012.5
20260508180924 77 360 4.3 8.7 0.00 0.00 0.00 70 1012.5
20260508180845 77 360 4.3 8.7 0.00 0.00 0.00 70 1012.5
20260508180724 77 360 3.5 8.7 0.00 0.00 0.00 71 1012.6
20260508180624 77 360 4.3 8.7 0.00 0.00 0.00 71 1012.6
20260508180524 77 360 4.3 8.7 0.00 0.00 0.00 72 1012.7
20260508180428 77 360 4.3 8.7 0.00 0.00 0.00 71 1012.7
20260508180349 76 360 4.3 8.7 0.00 0.00 0.00 71 1012.7
20260508180249 76 360 5.2 8.7 0.00 0.00 0.00 70 1012.7
20260508180128 77 360 4.3 8.7 0.00 0.00 0.00 70 1012.7
20260508180028 77 360 4.3 8.7 0.00 0.00 0.00 70 1012.7
20260508175928 77 360 4.3 8.7 0.00 0.00 0.00 69 1012.7
20260508175828 77 360 4.3 8.7 0.00 0.00 0.00 69 1012.8
20260508175729 77 360 4.3 8.7 0.00 0.00 0.00 69 1012.7
20260508175633 78 360 4.3 8.7 0.00 0.00 0.00 69 1012.7
20260508175554 78 360 3.5 8.7 0.00 0.00 0.00 69 1012.8
20260508175433 78 360 3.5 7.8 0.00 0.00 0.00 69 1012.8
20260508175333 78 360 2.6 7.8 0.00 0.00 0.00 70 1012.7
20260508175254 78 360 2.6 7.8 0.00 0.00 0.00 69 1012.7
20260508175133 78 360 3.5 7.8 0.00 0.00 0.00 69 1012.7
20260508175033 78 360 3.5 7.8 0.00 0.00 0.00 69 1012.7
20260508174918 78 360 3.5 7.8 0.00 0.00 0.00 69 1012.8
20260508174819 78 360 2.6 7.8 0.00 0.00 0.00 69 1012.8
20260508174740 78 360 2.6 7.8 0.00 0.00 0.00 69 1012.8
20260508174619 78 360 1.7 4.3 0.00 0.00 0.00 69 1012.8
20260508174520 78 360 2.6 4.3 0.00 0.00 0.00 68 1012.8
20260508174440 78 360 2.6 4.3 0.00 0.00 0.00 68 1012.8
20260508174340 78 360 2.6 4.3 0.00 0.00 0.00 68 1012.8
20260508174218 79 360 2.6 4.3 0.00 0.00 0.00 67 1012.7
20260508174123 79 360 2.6 4.3 0.00 0.00 0.00 67 1012.8
20260508174023 79 360 1.7 3.5 0.00 0.00 0.00 66 1012.8
20260508173923 80 360 1.7 4.3 0.00 0.00 0.00 66 1012.7
20260508173823 80 360 1.7 4.3 0.00 0.00 0.00 65 1012.7
20260508173725 80 91 1.7 4.3 0.00 0.00 0.00 65 1012.7
20260508173625 80 360 1.7 4.3 0.00 0.00 0.00 66 1012.7
20260508173529 79 360 2.6 4.3 0.00 0.00 0.00 65 1012.7
20260508173430 79 360 2.6 4.3 0.00 0.00 0.00 65 1012.7
20260508173330 79 42 2.6 4.3 0.00 0.00 0.00 65 1012.8
20260508173231 79 50 2.6 4.3 0.00 0.00 0.00 65 1012.8
20260508173131 79 64 2.6 4.3 0.00 0.00 0.00 65 1012.8
20260508173032 80 360 2.6 4.3 0.00 0.00 0.00 65 1012.9
20260508172916 80 360 1.7 4.3 0.00 0.00 0.00 67 1013.0
20260508172816 79 360 1.7 4.3 0.00 0.00 0.00 67 1013.0
20260508172737 79 89 1.7 4.3 0.00 0.00 0.00 67 1013.0
20260508172617 78 85 2.6 4.3 0.00 0.00 0.00 67 1013.0
20260508172518 78 360 2.6 4.3 0.00 0.00 0.00 68 1013.0
20260508172418 78 360 2.6 4.3 0.00 0.00 0.00 67 1013.1
20260508172319 78 360 2.6 4.3 0.00 0.00 0.00 66 1013.0
20260508172240 78 360 2.6 4.3 0.00 0.00 0.00 66 1013.0
20260508172143 78 360 2.6 3.5 0.00 0.00 0.00 65 1013.0
20260508172016 79 360 2.6 3.5 0.00 0.00 0.00 64 1013.0
20260508171916 79 360 2.6 3.5 0.00 0.00 0.00 64 1013.1
20260508171816 80 75 1.7 3.5 0.00 0.00 0.00 64 1013.1
20260508171715 80 360 1.7 3.5 0.00 0.00 0.00 65 1013.1
20260508171616 80 360 0.9 3.5 0.00 0.00 0.00 65 1013.1
20260508171516 80 65 0.9 3.5 0.00 0.00 0.00 65 1013.1
20260508171421 80 360 1.7 3.5 0.00 0.00 0.00 65 1013.1
20260508171321 80 360 1.7 3.5 0.00 0.00 0.00 66 1013.1
20260508171240 79 360 1.7 4.3 0.00 0.00 0.00 66 1013.0
20260508171120 79 92 1.7 4.3 0.00 0.00 0.00 67 1013.1
20260508171021 79 360 1.7 4.3 0.00 0.00 0.00 67 1013.1
20260508170921 78 360 1.7 4.3 0.00 0.00 0.00 68 1013.0
20260508170822 79 360 1.7 4.3 0.00 0.00 0.00 67 1013.0
20260508170726 79 360 1.7 4.3 0.00 0.00 0.00 67 1013.0
20260508170627 79 360 1.7 4.3 0.00 0.00 0.00 67 1013.0
20260508170526 79 360 1.7 4.3 0.00 0.00 0.00 68 1013.0
20260508170445 78 360 1.7 5.2 0.00 0.00 0.00 68 1013.0
20260508170325 78 360 1.7 5.2 0.00 0.00 0.00 69 1012.9
20260508170225 77 66 1.7 5.2 0.00 0.00 0.00 69 1013.0
20260508170145 77 360 1.7 5.2 0.00 0.00 0.00 68 1013.0
20260508170025 77 360 1.7 5.2 0.00 0.00 0.00 68 1013.0
20260508165930 77 360 1.7 5.2 0.00 0.00 0.00 67 1013.0
20260508165851 77 42 2.6 5.2 0.00 0.00 0.00 67 1013.1
20260508165732 77 360 2.6 5.2 0.00 0.00 0.00 67 1013.2
20260508165632 78 360 1.7 5.2 0.00 0.00 0.00 68 1013.2
20260508165552 78 360 1.7 5.2 0.00 0.00 0.00 68 1013.2
20260508165431 77 360 0.9 3.5 0.00 0.00 0.00 70 1013.2
20260508165332 77 360 0.9 4.3 0.00 0.00 0.00 70 1013.3
20260508165252 76 360 0.9 4.3 0.00 0.00 0.00 71 1013.3
20260508165135 76 120 0.9 5.2 0.00 0.00 0.00 71 1013.4
20260508165056 75 360 0.9 5.2 0.00 0.00 0.00 71 1013.3
20260508164935 75 360 1.7 5.2 0.00 0.00 0.00 71 1013.3
20260508164856 75 121 1.7 5.2 0.00 0.00 0.00 71 1013.3
20260508164715 74 360 2.6 5.2 0.00 0.00 0.00 71 1013.2
20260508164635 75 360 3.5 5.2 0.00 0.00 0.00 70 1013.2
20260508164556 75 90 3.5 5.2 0.00 0.00 0.00 70 1013.3
20260508164420 75 360 2.6 5.2 0.00 0.00 0.00 70 1013.3
20260508164321 75 360 2.6 5.2 0.00 0.00 0.00 69 1013.3
20260508164222 75 360 1.7 4.3 0.00 0.00 0.00 70 1013.3
20260508164121 75 360 1.7 5.2 0.00 0.00 0.00 70 1013.3
20260508164022 75 360 2.6 5.2 0.00 0.00 0.00 69 1013.3
20260508163923 75 360 2.6 5.2 0.00 0.00 0.00 70 1013.3
20260508163824 75 360 2.6 5.2 0.00 0.00 0.00 68 1013.3
20260508163727 76 360 2.6 5.2 0.00 0.00 0.00 68 1013.3
20260508163628 76 360 2.6 3.5 0.00 0.00 0.00 68 1013.4
20260508163527 77 360 2.6 3.5 0.00 0.00 0.00 66 1013.4
20260508163428 77 360 2.6 3.5 0.00 0.00 0.00 66 1013.3
20260508163328 77 360 1.7 3.5 0.00 0.00 0.00 66 1013.4
20260508163228 78 360 1.7 3.5 0.00 0.00 0.00 67 1013.4
20260508163128 77 360 1.7 3.5 0.00 0.00 0.00 68 1013.4
20260508163053 76 360 1.7 3.5 0.00 0.00 0.00 68 1013.5
20260508162952 76 360 1.7 3.5 0.00 0.00 0.00 68 1013.6
20260508162831 76 360 1.7 3.5 0.00 0.00 0.00 68 1013.5
20260508162733 76 109 1.7 3.5 0.00 0.00 0.00 68 1013.7
20260508162630 76 360 1.7 3.5 0.00 0.00 0.00 70 1013.7
20260508162531 75 360 1.7 3.5 0.00 0.00 0.00 70 1013.8
20260508162431 75 360 1.7 3.5 0.00 0.00 0.00 70 1013.8
20260508162351 75 360 1.7 5.2 0.00 0.00 0.00 70 1013.8
20260508162216 74 360 1.7 5.2 0.00 0.00 0.00 70 1013.8
20260508162117 74 360 1.7 5.2 0.00 0.00 0.00 70 1013.8
20260508162017 74 360 1.7 5.2 0.00 0.00 0.00 70 1013.8
20260508161917 74 360 1.7 5.2 0.00 0.00 0.00 70 1013.8
20260508161818 74 360 1.7 5.2 0.00 0.00 0.00 70 1013.9
20260508161718 74 105 2.6 5.2 0.00 0.00 0.00 70 1014.0
20260508161638 74 360 2.6 4.3 0.00 0.00 0.00 69 1013.9
20260508161522 74 360 2.6 4.3 0.00 0.00 0.00 69 1013.9
20260508161422 74 360 2.6 4.3 0.00 0.00 0.00 69 1013.9
20260508161323 75 360 1.7 4.3 0.00 0.00 0.00 68 1013.9
20260508161224 75 360 1.7 4.3 0.00 0.00 0.00 68 1013.9
20260508161124 75 360 0.9 4.3 0.00 0.00 0.00 70 1013.9
20260508161024 75 360 0.9 2.6 0.00 0.00 0.00 70 1014.0
20260508160945 74 360 0.9 3.5 0.00 0.00 0.00 71 1014.0
20260508160830 73 360 0.9 3.5 0.00 0.00 0.00 71 1014.0
20260508160730 73 360 0.9 3.5 0.00 0.00 0.00 73 1014.0
20260508160630 73 360 0.9 3.5 0.00 0.00 0.00 74 1013.9
20260508160550 72 360 0.9 3.5 0.00 0.00 0.00 73 1014.0
20260508160430 72 360 0.9 3.5 0.00 0.00 0.00 73 1013.9
20260508160330 71 360 0.9 3.5 0.00 0.00 0.00 73 1014.0
20260508160251 71 360 1.7 3.5 0.00 0.00 0.00 74 1013.9
20260508160129 71 360 1.7 3.5 0.00 0.00 0.00 74 1014.0
20260508160033 71 360 1.7 2.6 0.00 0.00 0.00 74 1014.1
20260508155934 70 360 1.7 2.6 0.00 0.00 0.00 74 1014.1
20260508155855 70 360 1.7 2.6 0.00 0.00 0.00 74 1014.1
20260508155735 70 360 1.7 2.6 0.00 0.00 0.00 74 1014.0
20260508155634 70 360 0.9 2.6 0.00 0.00 0.00 74 1014.0
20260508155535 70 360 0.9 2.6 0.00 0.00 0.00 74 1014.1
20260508155455 70 360 0.9 2.6 0.00 0.00 0.00 74 1014.1
20260508155319 70 360 1.7 2.6 0.00 0.00 0.00 73 1014.2
20260508155218 70 360 1.7 2.6 0.00 0.00 0.00 73 1014.2
20260508155119 70 360 1.7 2.6 0.00 0.00 0.00 73 1014.2
20260508155020 70 360 1.7 2.6 0.00 0.00 0.00 73 1014.1
20260508154940 70 360 1.7 2.6 0.00 0.00 0.00 73 1014.1
20260508154820 70 360 1.7 2.6 0.00 0.00 0.00 73 1014.2
20260508154720 70 360 0.9 2.6 0.00 0.00 0.00 73 1014.3
20260508154645 70 360 0.9 1.7 0.00 0.00 0.00 74 1014.2
20260508154524 70 360 0.9 1.7 0.00 0.00 0.00 74 1014.2
20260508154425 70 360 0.9 2.6 0.00 0.00 0.00 74 1014.1
20260508154322 70 360 0.9 2.6 0.00 0.00 0.00 74 1014.1
20260508154222 70 360 0.9 2.6 0.00 0.00 0.00 74 1014.2
20260508154143 70 360 0.9 2.6 0.00 0.00 0.00 74 1014.1
20260508154022 70 360 0.9 2.6 0.00 0.00 0.00 74 1014.1
20260508153922 69 360 0.9 2.6 0.00 0.00 0.00 74 1014.2
20260508153827 69 360 0.9 2.6 0.00 0.00 0.00 74 1014.2
20260508153728 69 360 0.9 2.6 0.00 0.00 0.00 74 1014.2
20260508153628 69 360 0.9 2.6 0.00 0.00 0.00 74 1014.2
20260508153529 69 360 0.9 2.6 0.00 0.00 0.00 74 1014.2
20260508153449 69 360 0.9 2.6 0.00 0.00 0.00 74 1014.1
20260508153328 69 360 0.9 2.6 0.00 0.00 0.00 75 1014.2
20260508153229 69 360 0.9 2.6 0.00 0.00 0.00 75 1014.2
20260508153133 69 360 0.9 2.6 0.00 0.00 0.00 75 1014.2
20260508153033 68 360 0.9 2.6 0.00 0.00 0.00 75 1014.3
20260508152934 68 360 0.9 2.6 0.00 0.00 0.00 75 1014.3
20260508152834 68 360 0.9 2.6 0.00 0.00 0.00 75 1014.3
20260508152736 68 360 1.7 2.6 0.00 0.00 0.00 75 1014.3
20260508152635 68 360 1.7 2.6 0.00 0.00 0.00 75 1014.4
20260508152520 68 360 0.9 2.6 0.00 0.00 0.00 75 1014.4
20260508152421 68 360 1.7 2.6 0.00 0.00 0.00 75 1014.4
20260508152321 68 360 0.9 2.6 0.00 0.00 0.00 75 1014.5
20260508152221 68 360 0.9 2.6 0.00 0.00 0.00 75 1014.5
20260508152121 68 360 0.9 2.6 0.00 0.00 0.00 76 1014.5
20260508152022 68 360 0.9 2.6 0.00 0.00 0.00 76 1014.5
20260508151942 68 360 0.9 2.6 0.00 0.00 0.00 76 1014.4
20260508151826 68 360 0.9 2.6 0.00 0.00 0.00 76 1014.4
20260508151726 68 360 1.7 2.6 0.00 0.00 0.00 76 1014.5
20260508151627 68 360 1.7 2.6 0.00 0.00 0.00 77 1014.5
20260508151549 68 360 1.7 2.6 0.00 0.00 0.00 77 1014.4
20260508151428 68 360 1.7 2.6 0.00 0.00 0.00 76 1014.5
20260508151328 68 360 1.7 3.5 0.00 0.00 0.00 76 1014.5